DLH446 EDDF-KDEN

Flight info

Callsign DLH446
Flight time 10h 1m
Altitude 36000
Route OBOKA3D/07C OBOKA Z28 DIBIR DCT BUDIP DCT MIMVA L602 NALAX L46 ESHIN N110 ERKIT DCT GOMUP DCT 59N020W 60N030W 59N040W 58N050W DCT CUDDY DCT PORGY DCT 55N070W 53N080W DCT TADIS DCT ABR DCT NYTRO AALLE4
Aircraft A359/H-SADE2E3GHIJ1J2J3J4J5M1P2RWXYZ/LB1D1

Departure

Time 2026-04-07 19:08
Airport Frankfurt Main Airport (EDDF)

Arrival

Time 2026-04-08 05:09
Airport Denver International Airport (KDEN)
Time Latitude Longitude Altitude Speed Heading
2026-04-07 18:34 50.04542 8.56747 368 ft 0 kts 295°
2026-04-07 18:59 50.04535 8.56770 368 ft 4 kts 294°
2026-04-07 18:59 50.04529 8.56808 368 ft 4 kts 257°
2026-04-07 18:59 50.04536 8.56846 366 ft 4 kts 248°
2026-04-07 18:59 50.04549 8.56882 367 ft 4 kts 221°
2026-04-07 19:00 50.04568 8.56898 368 ft 2 kts 194°
2026-04-07 19:00 50.04542 8.56888 371 ft 1 kts 193°
2026-04-07 19:02 50.04540 8.56887 370 ft 2 kts 192°
2026-04-07 19:03 50.04492 8.56871 365 ft 13 kts 192°
2026-04-07 19:03 50.04421 8.56850 371 ft 15 kts 189°
2026-04-07 19:03 50.04324 8.56823 367 ft 15 kts 191°
2026-04-07 19:03 50.04237 8.56733 372 ft 17 kts 242°
2026-04-07 19:04 50.04192 8.56553 367 ft 19 kts 249°
2026-04-07 19:04 50.04143 8.56352 365 ft 21 kts 250°
2026-04-07 19:04 50.04093 8.56136 365 ft 22 kts 250°
2026-04-07 19:04 50.04039 8.55911 362 ft 23 kts 250°
2026-04-07 19:05 50.03983 8.55677 362 ft 24 kts 250°
2026-04-07 19:05 50.03926 8.55437 359 ft 24 kts 250°
2026-04-07 19:05 50.03868 8.55195 363 ft 24 kts 250°
2026-04-07 19:05 50.03811 8.54957 359 ft 18 kts 249°
2026-04-07 19:06 50.03767 8.54777 357 ft 18 kts 249°
2026-04-07 19:06 50.03725 8.54602 358 ft 15 kts 249°
2026-04-07 19:06 50.03692 8.54462 359 ft 15 kts 249°
2026-04-07 19:06 50.03651 8.54324 357 ft 12 kts 223°
2026-04-07 19:07 50.03571 8.54331 356 ft 13 kts 161°
2026-04-07 19:07 50.03503 8.54370 359 ft 7 kts 158°
2026-04-07 19:07 50.03495 8.54416 357 ft 4 kts 78°
2026-04-07 19:07 50.03515 8.54523 356 ft 28 kts 72°
2026-04-07 19:08 50.03655 8.55097 356 ft 85 kts 69°
2026-04-07 19:08 50.03919 8.56202 362 ft 132 kts 70°
2026-04-07 19:08 50.04283 8.57725 402 ft 169 kts 69°
2026-04-07 19:08 50.04655 8.59413 983 ft 165 kts 69°
2026-04-07 19:09 50.05041 8.61101 1532 ft 168 kts 69°
2026-04-07 19:09 50.05454 8.62918 1812 ft 184 kts 70°
2026-04-07 19:09 50.05898 8.64888 2014 ft 202 kts 70°
2026-04-07 19:09 50.06371 8.67003 2399 ft 211 kts 70°
2026-04-07 19:10 50.06868 8.69144 2900 ft 215 kts 67°
2026-04-07 19:10 50.07699 8.71076 3417 ft 219 kts 43°
2026-04-07 19:10 50.09003 8.72341 3792 ft 223 kts 26°
2026-04-07 19:10 50.10431 8.73305 4042 ft 225 kts 24°
2026-04-07 19:11 50.11880 8.74242 4416 ft 227 kts 24°
2026-04-07 19:11 50.13351 8.75208 4863 ft 236 kts 24°
2026-04-07 19:11 50.14916 8.76251 5101 ft 252 kts 24°
2026-04-07 19:11 50.16561 8.77356 5481 ft 260 kts 24°
2026-04-07 19:12 50.18227 8.78479 6071 ft 262 kts 24°
2026-04-07 19:12 50.19902 8.79612 6643 ft 263 kts 23°
2026-04-07 19:12 50.21590 8.80755 7178 ft 265 kts 23°
2026-04-07 19:12 50.23287 8.81901 7703 ft 267 kts 22°
2026-04-07 19:13 50.25076 8.82707 8206 ft 269 kts
2026-04-07 19:13 50.26936 8.82463 8738 ft 272 kts 343°
2026-04-07 19:13 50.28593 8.81042 9262 ft 276 kts 320°
2026-04-07 19:13 50.29754 8.78631 9787 ft 283 kts 296°
2026-04-07 19:14 50.30199 8.75618 10295 ft 289 kts 276°
2026-04-07 19:14 50.30467 8.72470 10587 ft 296 kts 287°
2026-04-07 19:14 50.31061 8.69319 10778 ft 308 kts 291°
2026-04-07 19:14 50.31761 8.66076 10958 ft 321 kts 291°
2026-04-07 19:15 50.32499 8.62703 11162 ft 334 kts 291°
2026-04-07 19:15 50.33266 8.59209 11360 ft 345 kts 292°
2026-04-07 19:15 50.34053 8.55605 11630 ft 354 kts 292°
2026-04-07 19:15 50.34852 8.51941 12015 ft 358 kts 292°
2026-04-07 19:16 50.35655 8.48240 12475 ft 360 kts 292°
2026-04-07 19:16 50.36462 8.44513 12914 ft 362 kts 292°
2026-04-07 19:16 50.37271 8.40764 13338 ft 365 kts 292°
2026-04-07 19:16 50.38085 8.36991 13791 ft 366 kts 292°
2026-04-07 19:17 50.38900 8.33206 14217 ft 369 kts 292°
2026-04-07 19:17 50.39725 8.29365 14655 ft 373 kts 291°
2026-04-07 19:17 50.40552 8.25511 15239 ft 374 kts 291°
2026-04-07 19:17 50.41382 8.21632 15831 ft 376 kts 291°
2026-04-07 19:18 50.42213 8.17739 16409 ft 377 kts 291°
2026-04-07 19:18 50.43047 8.13828 16949 ft 379 kts 291°
2026-04-07 19:18 50.43884 8.09892 17514 ft 381 kts 291°
2026-04-07 19:18 50.44724 8.05936 18069 ft 383 kts 291°
2026-04-07 19:19 50.45568 8.01957 18638 ft 385 kts 291°
2026-04-07 19:19 50.46403 7.98007 19120 ft 388 kts 291°
2026-04-07 19:19 50.47255 7.93975 19621 ft 390 kts 291°
2026-04-07 19:19 50.48109 7.89924 20120 ft 393 kts 291°
2026-04-07 19:20 50.48969 7.85835 20604 ft 396 kts 290°
2026-04-07 19:20 50.49833 7.81717 21096 ft 399 kts 290°
2026-04-07 19:20 50.50702 7.77567 21603 ft 401 kts 290°
2026-04-07 19:20 50.51574 7.73394 22114 ft 403 kts 290°
2026-04-07 19:21 50.52449 7.69199 22612 ft 405 kts 290°
2026-04-07 19:21 50.53328 7.64973 23111 ft 408 kts 290°
2026-04-07 19:21 50.54225 7.60727 23581 ft 410 kts 292°
2026-04-07 19:21 50.55379 7.56629 24022 ft 410 kts 301°
2026-04-07 19:22 50.56984 7.52927 24266 ft 409 kts 311°
2026-04-07 19:22 50.59051 7.49882 24461 ft 408 kts 324°
2026-04-07 19:22 50.61393 7.47311 24708 ft 413 kts 326°
2026-04-07 19:22 50.63801 7.44814 25037 ft 416 kts 326°
2026-04-07 19:23 50.66238 7.42306 25389 ft 420 kts 326°
2026-04-07 19:23 50.68687 7.39789 25815 ft 422 kts 326°
2026-04-07 19:23 50.71153 7.37246 26199 ft 425 kts 326°
2026-04-07 19:23 50.73522 7.34443 26553 ft 427 kts 319°
2026-04-07 19:24 50.75612 7.31098 26912 ft 430 kts 309°
2026-04-07 19:24 50.77459 7.27364 27277 ft 433 kts 307°
2026-04-07 19:24 50.79229 7.23507 27637 ft 435 kts 306°
2026-04-07 19:24 50.80970 7.19574 27998 ft 438 kts 305°
2026-04-07 19:25 50.82705 7.15604 28356 ft 440 kts 304°
2026-04-07 19:25 50.84453 7.11600 28690 ft 443 kts 305°
2026-04-07 19:25 50.86214 7.07582 29030 ft 446 kts 305°
2026-04-07 19:25 50.87993 7.03544 29315 ft 449 kts 304°
2026-04-07 19:26 50.89788 6.99478 29580 ft 453 kts 304°
2026-04-07 19:26 50.91603 6.95381 29935 ft 455 kts 304°
2026-04-07 19:26 50.93424 6.91268 30265 ft 457 kts 304°
2026-04-07 19:26 50.95251 6.87129 30513 ft 459 kts 304°
2026-04-07 19:27 50.97085 6.82968 30781 ft 461 kts 304°
2026-04-07 19:27 50.98923 6.78790 31051 ft 463 kts 304°
2026-04-07 19:27 51.00765 6.74596 31313 ft 464 kts 304°
2026-04-07 19:27 51.02612 6.70383 31533 ft 465 kts 304°
2026-04-07 19:28 51.04463 6.66157 31784 ft 467 kts 304°
2026-04-07 19:28 51.06319 6.61911 32015 ft 468 kts 304°
2026-04-07 19:28 51.08181 6.57644 32161 ft 472 kts 304°
2026-04-07 19:28 51.10054 6.53347 32407 ft 472 kts 304°
2026-04-07 19:29 51.11919 6.49059 32770 ft 470 kts 304°
2026-04-07 19:29 51.13750 6.44841 33106 ft 469 kts 303°
2026-04-07 19:29 51.15599 6.40571 33417 ft 468 kts 303°
2026-04-07 19:29 51.17442 6.36309 33750 ft 466 kts 303°
2026-04-07 19:30 51.19271 6.32074 34134 ft 463 kts 303°
2026-04-07 19:30 51.21092 6.27850 34421 ft 461 kts 303°
2026-04-07 19:30 51.22906 6.23635 34646 ft 461 kts 303°
2026-04-07 19:30 51.24720 6.19415 34820 ft 461 kts 303°
2026-04-07 19:31 51.26534 6.15187 34955 ft 463 kts 303°
2026-04-07 19:31 51.28356 6.10935 35064 ft 464 kts 303°
2026-04-07 19:31 51.29575 6.08046 35198 ft 464 kts 302°
2026-04-07 19:31 51.31345 6.03750 35416 ft 462 kts 302°
2026-04-07 19:32 51.33095 5.99438 35641 ft 462 kts 302°
2026-04-07 19:32 51.34836 5.95129 35804 ft 461 kts 302°
2026-04-07 19:32 51.36603 5.90849 35966 ft 461 kts 304°
2026-04-07 19:32 51.38630 5.86871 36120 ft 462 kts 312°
2026-04-07 19:33 51.40896 5.83306 36275 ft 463 kts 315°
2026-04-07 19:33 51.45692 5.76325 36317 ft 469 kts 317°
2026-04-07 19:34 51.50592 5.69409 36318 ft 470 kts 317°
2026-04-07 19:34 51.55492 5.62471 36319 ft 470 kts 317°
2026-04-07 19:35 51.60379 5.55495 36317 ft 470 kts 316°
2026-04-07 19:35 51.65253 5.48498 36317 ft 470 kts 316°
2026-04-07 19:36 51.70129 5.41475 36321 ft 470 kts 316°
2026-04-07 19:36 51.74991 5.34451 36317 ft 469 kts 316°
2026-04-07 19:37 51.79852 5.27407 36314 ft 471 kts 316°
2026-04-07 19:37 51.84727 5.20323 36312 ft 471 kts 316°
2026-04-07 19:38 51.89599 5.13223 36313 ft 471 kts 316°
2026-04-07 19:38 51.94468 5.06106 36313 ft 471 kts 316°
2026-04-07 19:39 51.99327 4.98982 36317 ft 470 kts 316°
2026-04-07 19:39 52.04176 4.91849 36312 ft 470 kts 316°
2026-04-07 19:40 52.09025 4.84695 36320 ft 472 kts 316°
2026-04-07 19:40 52.13885 4.77502 36319 ft 473 kts 315°
2026-04-07 19:41 52.18745 4.70288 36319 ft 473 kts 315°
2026-04-07 19:41 52.23601 4.63058 36316 ft 472 kts 315°
2026-04-07 19:42 52.28444 4.55824 36317 ft 472 kts 315°
2026-04-07 19:42 52.33281 4.48576 36325 ft 472 kts 315°
2026-04-07 19:43 52.38112 4.41316 36325 ft 472 kts 315°
2026-04-07 19:43 52.42942 4.34033 36333 ft 472 kts 315°
2026-04-07 19:44 52.47733 4.26788 36333 ft 471 kts 315°
2026-04-07 19:44 52.52540 4.19496 36333 ft 470 kts 315°
2026-04-07 19:45 52.57372 4.12143 36338 ft 470 kts 315°
2026-04-07 19:45 52.62137 4.04868 36344 ft 470 kts 315°
2026-04-07 19:46 52.66925 3.97536 36344 ft 470 kts 315°
2026-04-07 19:46 52.71722 3.90165 36350 ft 471 kts 315°
2026-04-07 19:47 52.76511 3.82786 36349 ft 471 kts 315°
2026-04-07 19:47 52.81292 3.75396 36344 ft 471 kts 315°
2026-04-07 19:48 52.86066 3.67993 36344 ft 471 kts 315°
2026-04-07 19:48 52.90839 3.60567 36338 ft 471 kts 315°
2026-04-07 19:49 52.95603 3.53132 36348 ft 471 kts 315°
2026-04-07 19:49 53.00360 3.45684 36338 ft 470 kts 314°
2026-04-07 19:50 53.05103 3.38224 36340 ft 469 kts 314°
2026-04-07 19:50 53.09121 3.29783 36341 ft 464 kts 298°
2026-04-07 19:51 53.11490 3.19867 36347 ft 462 kts 284°
2026-04-07 19:51 53.12972 3.09455 36344 ft 462 kts 281°
2026-04-07 19:52 53.14305 2.98975 36343 ft 463 kts 281°
2026-04-07 19:52 53.15643 2.88459 36344 ft 464 kts 281°
2026-04-07 19:53 53.16995 2.77954 36341 ft 463 kts 281°
2026-04-07 19:53 53.18349 2.67454 36342 ft 464 kts 281°
2026-04-07 19:54 53.19696 2.56931 36336 ft 464 kts 281°
2026-04-07 19:54 53.21034 2.46416 36336 ft 464 kts 281°
2026-04-07 19:55 53.22354 2.35942 36331 ft 465 kts 281°
2026-04-07 19:55 53.23679 2.25317 36331 ft 464 kts 281°
2026-04-07 19:56 53.24974 2.14859 36331 ft 463 kts 281°
2026-04-07 19:56 53.26267 2.04343 36334 ft 463 kts 281°
2026-04-07 19:57 53.27553 1.93810 36334 ft 462 kts 281°
2026-04-07 19:57 53.28828 1.83288 36333 ft 462 kts 280°
2026-04-07 19:58 53.30094 1.72752 36334 ft 462 kts 280°
2026-04-07 19:58 53.31350 1.62218 36319 ft 462 kts 280°
2026-04-07 19:59 53.32597 1.51679 36331 ft 462 kts 280°
2026-04-07 19:59 53.33994 1.41191 36326 ft 462 kts 283°
2026-04-07 20:00 53.35568 1.30757 36323 ft 462 kts 283°
2026-04-07 20:00 53.37881 1.15100 36322 ft 462 kts 282°
2026-04-07 20:01 53.39378 1.04633 36324 ft 462 kts 282°
2026-04-07 20:01 53.40858 0.94156 36309 ft 462 kts 282°
2026-04-07 20:02 53.42329 0.83683 36317 ft 462 kts 282°
2026-04-07 20:02 53.43793 0.73200 36300 ft 462 kts 282°
2026-04-07 20:03 53.45249 0.62703 36305 ft 462 kts 282°
2026-04-07 20:03 53.46683 0.52286 36294 ft 462 kts 282°
2026-04-07 20:04 53.48130 0.41710 36291 ft 462 kts 281°
2026-04-07 20:04 53.49562 0.31198 36288 ft 462 kts 281°
2026-04-07 20:05 53.50968 0.20754 36287 ft 462 kts 281°
2026-04-07 20:05 53.52374 0.10228 36266 ft 462 kts 281°
2026-04-07 20:06 53.53777 -0.00301 36296 ft 462 kts 281°
2026-04-07 20:06 53.55165 -0.10838 36283 ft 462 kts 280°
2026-04-07 20:07 53.56791 -0.21292 36288 ft 464 kts 288°
2026-04-07 20:07 53.59909 -0.30829 36290 ft 470 kts 305°
2026-04-07 20:08 53.64692 -0.38424 36292 ft 477 kts 320°
2026-04-07 20:08 53.70142 -0.44864 36284 ft 479 kts 323°
2026-04-07 20:09 53.75676 -0.51141 36290 ft 479 kts 323°
2026-04-07 20:09 53.81194 -0.57469 36274 ft 479 kts 322°
2026-04-07 20:10 53.86688 -0.63849 36263 ft 479 kts 322°
2026-04-07 20:10 53.92176 -0.70262 36265 ft 479 kts 322°
2026-04-07 20:11 53.97657 -0.76689 36270 ft 479 kts 322°
2026-04-07 20:11 54.02801 -0.83765 36266 ft 473 kts 310°
2026-04-07 20:12 54.06778 -0.92583 36262 ft 469 kts 301°
2026-04-07 20:12 54.10392 -1.01822 36263 ft 469 kts 300°
2026-04-07 20:13 54.13941 -1.11151 36257 ft 469 kts 300°
2026-04-07 20:13 54.17501 -1.20501 36239 ft 470 kts 300°
2026-04-07 20:14 54.21074 -1.29865 36237 ft 471 kts 300°
2026-04-07 20:14 54.24646 -1.39241 36242 ft 471 kts 300°
2026-04-07 20:15 54.28207 -1.48624 36238 ft 470 kts 300°
2026-04-07 20:15 54.31755 -1.58010 36239 ft 469 kts 300°
2026-04-07 20:16 54.35298 -1.67421 36241 ft 470 kts 299°
2026-04-07 20:16 54.38837 -1.76861 36239 ft 471 kts 299°
2026-04-07 20:17 54.41774 -1.84717 36236 ft 471 kts 299°
2026-04-07 20:17 54.45304 -1.94194 36232 ft 471 kts 299°
2026-04-07 20:18 54.48826 -2.03685 36243 ft 471 kts 299°
2026-04-07 20:18 54.52339 -2.13190 36234 ft 471 kts 299°
2026-04-07 20:19 54.55847 -2.22719 36214 ft 471 kts 298°
2026-04-07 20:19 54.59353 -2.32279 36231 ft 472 kts 298°
2026-04-07 20:20 54.62850 -2.41848 36193 ft 472 kts 298°
2026-04-07 20:20 54.66339 -2.51437 36213 ft 472 kts 298°
2026-04-07 20:21 54.69822 -2.61046 36186 ft 472 kts 298°
2026-04-07 20:21 54.73297 -2.70669 36209 ft 472 kts 298°
2026-04-07 20:22 54.76768 -2.80319 36191 ft 473 kts 298°
2026-04-07 20:22 54.80241 -2.90014 36180 ft 474 kts 298°
2026-04-07 20:23 54.83711 -2.99734 36174 ft 474 kts 297°
2026-04-07 20:23 54.87169 -3.09461 36166 ft 474 kts 297°
2026-04-07 20:24 54.90596 -3.19141 36167 ft 473 kts 297°
2026-04-07 20:24 54.94038 -3.28902 36162 ft 474 kts 297°
2026-04-07 20:25 54.97479 -3.38702 36157 ft 475 kts 297°
2026-04-07 20:25 55.00913 -3.48518 36154 ft 475 kts 297°
2026-04-07 20:26 55.04344 -3.58362 36146 ft 475 kts 297°
2026-04-07 20:26 55.07763 -3.68213 36146 ft 475 kts 297°
2026-04-07 20:27 55.11172 -3.78077 36141 ft 475 kts 297°
2026-04-07 20:27 55.14576 -3.87966 36145 ft 475 kts 296°
2026-04-07 20:28 55.17976 -3.97885 36137 ft 476 kts 296°
2026-04-07 20:28 55.21373 -4.07833 36135 ft 476 kts 296°
2026-04-07 20:29 55.24758 -4.17786 36135 ft 475 kts 296°
2026-04-07 20:29 55.28133 -4.27753 36138 ft 475 kts 296°
2026-04-07 20:30 55.31500 -4.37735 36142 ft 475 kts 296°
2026-04-07 20:30 55.34858 -4.47731 36156 ft 475 kts 295°
2026-04-07 20:31 55.38200 -4.57719 36147 ft 474 kts 295°
2026-04-07 20:31 55.41531 -4.67720 36158 ft 474 kts 295°
2026-04-07 20:32 55.44854 -4.77736 36131 ft 473 kts 295°
2026-04-07 20:32 55.48164 -4.87753 36129 ft 473 kts 295°
2026-04-07 20:33 55.51466 -4.97791 36130 ft 473 kts 295°
2026-04-07 20:33 55.54759 -5.07841 36132 ft 473 kts 294°
2026-04-07 20:34 55.58046 -5.17916 36131 ft 473 kts 294°
2026-04-07 20:34 55.61326 -5.28011 36133 ft 473 kts 294°
2026-04-07 20:35 55.64598 -5.38123 36129 ft 473 kts 294°
2026-04-07 20:35 55.67860 -5.48249 36135 ft 473 kts 294°
2026-04-07 20:36 55.71112 -5.58383 36129 ft 473 kts 293°
2026-04-07 20:36 55.74357 -5.68541 36128 ft 473 kts 293°
2026-04-07 20:37 55.77595 -5.78722 36127 ft 473 kts 293°
2026-04-07 20:37 55.80823 -5.88915 36127 ft 473 kts 293°
2026-04-07 20:38 55.84021 -5.99051 36124 ft 473 kts 292°
2026-04-07 20:38 55.87232 -6.09276 36125 ft 473 kts 292°
2026-04-07 20:39 55.90431 -6.19509 36122 ft 473 kts 292°
2026-04-07 20:39 55.93626 -6.29768 36121 ft 473 kts 292°
2026-04-07 20:40 55.96810 -6.40037 36110 ft 473 kts 292°
2026-04-07 20:40 55.99985 -6.50321 36111 ft 473 kts 292°
2026-04-07 20:41 56.03151 -6.60623 36108 ft 473 kts 292°
2026-04-07 20:41 56.06307 -6.70936 36108 ft 473 kts 292°
2026-04-07 20:42 56.09454 -6.81264 36105 ft 473 kts 292°
2026-04-07 20:42 56.12594 -6.91615 36106 ft 474 kts 291°
2026-04-07 20:43 56.15740 -7.02035 36102 ft 475 kts 291°
2026-04-07 20:43 56.18881 -7.12477 36102 ft 475 kts 291°
2026-04-07 20:44 56.22013 -7.22938 36096 ft 475 kts 291°
2026-04-07 20:44 56.25136 -7.33414 36095 ft 475 kts 291°
2026-04-07 20:45 56.28248 -7.43903 36098 ft 475 kts 291°
2026-04-07 20:45 56.31350 -7.54409 36099 ft 476 kts 290°
2026-04-07 20:46 56.34452 -7.64959 36115 ft 476 kts 290°
2026-04-07 20:46 56.37544 -7.75520 36096 ft 476 kts 290°
2026-04-07 20:47 56.40627 -7.86096 36094 ft 476 kts 290°
2026-04-07 20:47 56.43696 -7.96679 36094 ft 476 kts 290°
2026-04-07 20:48 56.46759 -8.07286 36097 ft 476 kts 290°
2026-04-07 20:48 56.49810 -8.17900 36097 ft 475 kts 290°
2026-04-07 20:49 56.52827 -8.28444 36097 ft 474 kts 290°
2026-04-07 20:49 56.55853 -8.39068 36097 ft 474 kts 290°
2026-04-07 20:50 56.58868 -8.49703 36098 ft 474 kts 290°
2026-04-07 20:50 56.61874 -8.60356 36098 ft 474 kts 290°
2026-04-07 20:51 56.64869 -8.71018 36097 ft 474 kts 290°
2026-04-07 20:51 56.67857 -8.81705 36097 ft 475 kts 291°
2026-04-07 20:52 56.70840 -8.92426 36104 ft 475 kts 291°
2026-04-07 20:52 56.73816 -9.03167 36100 ft 475 kts 290°
2026-04-07 20:53 56.76780 -9.13918 36105 ft 475 kts 290°
2026-04-07 20:53 56.79735 -9.24685 36106 ft 475 kts 290°
2026-04-07 20:54 56.82679 -9.35465 36100 ft 475 kts 290°
2026-04-07 20:54 56.85614 -9.46264 36103 ft 474 kts 291°
2026-04-07 20:55 56.88536 -9.57063 36097 ft 474 kts 291°
2026-04-07 20:55 56.91444 -9.67863 36098 ft 473 kts 291°
2026-04-07 20:56 56.94343 -9.78683 36099 ft 473 kts 291°
2026-04-07 20:56 56.97231 -9.89512 36094 ft 473 kts 291°
2026-04-07 20:57 57.00167 -10.00316 36079 ft 477 kts 297°
2026-04-07 20:57 57.04205 -10.10079 36097 ft 480 kts 302°
2026-04-07 20:58 57.07447 -10.20573 36094 ft 467 kts 285°
2026-04-07 20:58 57.09871 -10.31663 36094 ft 469 kts 290°
2026-04-07 20:59 57.12510 -10.42564 36094 ft 469 kts 290°
2026-04-07 20:59 57.15177 -10.53532 36089 ft 470 kts 290°
2026-04-07 21:00 57.19206 -10.69990 36089 ft 469 kts 290°
2026-04-07 21:01 57.21884 -10.80960 36089 ft 468 kts 290°
2026-04-07 21:01 57.24545 -10.91917 36084 ft 467 kts 290°
2026-04-07 21:02 57.27191 -11.02875 36084 ft 467 kts 290°
2026-04-07 21:02 57.29829 -11.13858 36084 ft 467 kts 290°
2026-04-07 21:03 57.32455 -11.24846 36078 ft 467 kts 290°
2026-04-07 21:03 57.35072 -11.35850 36075 ft 467 kts 290°
2026-04-07 21:04 57.37239 -11.45006 36078 ft 466 kts 290°
2026-04-07 21:04 57.39824 -11.55976 36098 ft 463 kts 290°
2026-04-07 21:05 57.42391 -11.66927 36072 ft 463 kts 290°
2026-04-07 21:05 57.44945 -11.77882 36072 ft 462 kts 290°
2026-04-07 21:06 57.47490 -11.88853 36069 ft 462 kts 290°
2026-04-07 21:06 57.50022 -11.99825 36067 ft 462 kts 290°
2026-04-07 21:07 57.52547 -12.10819 36066 ft 462 kts 290°
2026-04-07 21:07 57.55056 -12.21798 36064 ft 459 kts 290°
2026-04-07 21:08 57.57542 -12.32739 36059 ft 458 kts 290°
2026-04-07 21:08 57.60000 -12.43614 36072 ft 458 kts 290°
2026-04-07 21:09 57.62465 -12.54573 36065 ft 458 kts 289°
2026-04-07 21:09 57.64917 -12.65532 36053 ft 458 kts 289°
2026-04-07 21:10 57.67362 -12.76515 36053 ft 458 kts 289°
2026-04-07 21:10 57.69796 -12.87510 36053 ft 458 kts 289°
2026-04-07 21:11 57.72219 -12.98509 36041 ft 457 kts 289°
2026-04-07 21:11 57.74632 -13.09523 36041 ft 457 kts 289°
2026-04-07 21:12 57.77035 -13.20549 36038 ft 457 kts 289°
2026-04-07 21:12 57.79430 -13.31595 36042 ft 457 kts 289°
2026-04-07 21:13 57.81813 -13.42646 36034 ft 457 kts 289°
2026-04-07 21:13 57.84184 -13.53703 36028 ft 456 kts 289°
2026-04-07 21:14 57.86538 -13.64736 36033 ft 454 kts 289°
2026-04-07 21:14 57.88877 -13.75760 36017 ft 454 kts 289°
2026-04-07 21:15 57.91207 -13.86801 36012 ft 454 kts 289°
2026-04-07 21:15 57.93527 -13.97856 36024 ft 454 kts 289°
2026-04-07 21:16 57.95837 -14.08921 36020 ft 454 kts 288°
2026-04-07 21:16 57.98136 -14.19994 36003 ft 454 kts 288°
2026-04-07 21:17 58.00424 -14.31072 36003 ft 453 kts 288°
2026-04-07 21:17 58.02697 -14.42141 36005 ft 452 kts 288°
2026-04-07 21:18 58.04961 -14.53229 35988 ft 452 kts 288°
2026-04-07 21:18 58.07213 -14.64317 36000 ft 452 kts 288°
2026-04-07 21:19 58.09457 -14.75424 36001 ft 452 kts 288°
2026-04-07 21:19 58.11690 -14.86544 35987 ft 452 kts 288°
2026-04-07 21:20 58.13914 -14.97676 35997 ft 452 kts 288°
2026-04-07 21:20 58.16125 -15.08811 35985 ft 452 kts 288°
2026-04-07 21:21 58.18326 -15.19952 35982 ft 451 kts 288°
2026-04-07 21:21 58.20515 -15.31098 35977 ft 451 kts 288°
2026-04-07 21:22 58.22680 -15.42189 35969 ft 451 kts 288°
2026-04-07 21:22 58.24849 -15.53359 35963 ft 451 kts 288°
2026-04-07 21:23 58.27008 -15.64542 35970 ft 451 kts 287°
2026-04-07 21:23 58.29155 -15.75725 35957 ft 450 kts 287°
2026-04-07 21:24 58.31288 -15.86900 35951 ft 449 kts 287°
2026-04-07 21:24 58.33409 -15.98081 35962 ft 449 kts 287°
2026-04-07 21:25 58.35523 -16.09285 35943 ft 449 kts 287°
2026-04-07 21:25 58.37625 -16.20494 35935 ft 449 kts 287°
2026-04-07 21:26 58.39716 -16.31711 35934 ft 449 kts 287°
2026-04-07 21:26 58.41798 -16.42942 35924 ft 449 kts 287°
2026-04-07 21:27 58.43866 -16.54164 35919 ft 448 kts 286°
2026-04-07 21:27 58.45922 -16.65385 35919 ft 448 kts 286°
2026-04-07 21:28 58.47967 -16.76616 35911 ft 447 kts 286°
2026-04-07 21:28 58.49987 -16.87779 35909 ft 448 kts 286°
2026-04-07 21:29 58.52015 -16.99050 35892 ft 449 kts 286°
2026-04-07 21:29 58.54035 -17.10346 35892 ft 448 kts 285°
2026-04-07 21:30 58.56044 -17.21642 35886 ft 447 kts 285°
2026-04-07 21:30 58.58037 -17.32922 35878 ft 447 kts 285°
2026-04-07 21:31 58.60018 -17.44201 35879 ft 446 kts 285°
2026-04-07 21:31 58.61990 -17.55498 35875 ft 447 kts 285°
2026-04-07 21:32 58.63951 -17.66806 35860 ft 446 kts 285°
2026-04-07 21:32 58.65902 -17.78125 35897 ft 447 kts 285°
2026-04-07 21:33 58.67845 -17.89467 35853 ft 448 kts 284°
2026-04-07 21:33 58.69778 -18.00815 35837 ft 446 kts 284°
2026-04-07 21:34 58.71695 -18.12145 35837 ft 445 kts 284°
2026-04-07 21:34 58.73601 -18.23482 35829 ft 445 kts 284°
2026-04-07 21:35 58.75496 -18.34824 35821 ft 445 kts 284°
2026-04-07 21:35 58.77369 -18.46108 35821 ft 445 kts 284°
2026-04-07 21:36 58.79243 -18.57473 35807 ft 445 kts 284°
2026-04-07 21:36 58.81107 -18.68840 35806 ft 444 kts 283°
2026-04-07 21:37 58.82955 -18.80185 35788 ft 444 kts 283°
2026-04-07 21:37 58.84794 -18.91562 35787 ft 444 kts 283°
2026-04-07 21:38 58.86624 -19.02947 35787 ft 444 kts 283°
2026-04-07 21:38 58.88444 -19.14343 35766 ft 444 kts 283°
2026-04-07 21:39 58.90254 -19.25751 35766 ft 444 kts 283°
2026-04-07 21:39 58.92053 -19.37165 35766 ft 443 kts 282°
2026-04-07 21:40 58.93842 -19.48587 35741 ft 443 kts 282°
2026-04-07 21:40 58.95617 -19.60006 35741 ft 443 kts 282°
2026-04-07 21:41 58.97382 -19.71430 35742 ft 443 kts 281°
2026-04-07 21:41 58.99143 -19.82916 35741 ft 445 kts 281°
2026-04-07 21:42 59.00898 -19.94423 35733 ft 445 kts 281°
2026-04-07 21:42 59.02620 -20.05946 35716 ft 444 kts 281°
2026-04-07 21:43 59.04241 -20.17515 35719 ft 444 kts 280°
2026-04-07 21:43 59.05839 -20.29095 35703 ft 444 kts 280°
2026-04-07 21:44 59.07438 -20.40672 35689 ft 443 kts 280°
2026-04-07 21:44 59.09035 -20.52254 35693 ft 443 kts 280°
2026-04-07 21:45 59.10624 -20.63843 35712 ft 443 kts 280°
2026-04-07 21:45 59.12205 -20.75479 35672 ft 446 kts 279°
2026-04-07 21:46 59.13785 -20.87186 35672 ft 447 kts 279°
2026-04-07 21:46 59.15355 -20.98903 35655 ft 447 kts 279°
2026-04-07 21:47 59.16911 -21.10607 35645 ft 446 kts 279°
2026-04-07 21:47 59.18455 -21.22317 35643 ft 446 kts 279°
2026-04-07 21:48 59.19987 -21.34029 35626 ft 446 kts 278°
2026-04-07 21:48 59.21499 -21.45674 35616 ft 445 kts 278°
2026-04-07 21:49 59.23009 -21.57398 35602 ft 445 kts 278°
2026-04-07 21:49 59.24509 -21.69136 35610 ft 446 kts 278°
2026-04-07 21:50 59.26008 -21.80976 35601 ft 450 kts 278°
2026-04-07 21:50 59.27504 -21.92873 35571 ft 451 kts 277°
2026-04-07 21:51 59.28992 -22.04788 35573 ft 451 kts 277°
2026-04-07 21:51 59.30469 -22.16715 35571 ft 451 kts 277°
2026-04-07 21:52 59.31932 -22.28639 35546 ft 450 kts 277°
2026-04-07 21:52 59.33384 -22.40567 35546 ft 450 kts 277°
2026-04-07 21:53 59.34582 -22.50493 35543 ft 450 kts 277°
2026-04-07 21:53 59.36016 -22.62470 35528 ft 452 kts 277°
2026-04-07 21:54 59.37445 -22.74506 35521 ft 455 kts 277°
2026-04-07 21:54 59.38871 -22.86616 35501 ft 456 kts 277°
2026-04-07 21:55 59.40288 -22.98737 35500 ft 456 kts 276°
2026-04-07 21:55 59.41693 -23.10869 35495 ft 456 kts 276°
2026-04-07 21:56 59.43085 -23.23005 35473 ft 455 kts 276°
2026-04-07 21:56 59.44466 -23.35157 35475 ft 457 kts 276°
2026-04-07 21:57 59.45841 -23.47375 35444 ft 458 kts 276°
2026-04-07 21:57 59.47209 -23.59617 35444 ft 458 kts 276°
2026-04-07 21:58 59.48564 -23.71864 35441 ft 458 kts 276°
2026-04-07 21:58 59.49908 -23.84123 35416 ft 458 kts 276°
2026-04-07 21:59 59.51239 -23.96385 35414 ft 458 kts 276°
2026-04-07 21:59 59.52559 -24.08653 35404 ft 458 kts 275°
2026-04-07 22:00 59.53868 -24.20956 35385 ft 459 kts 275°
2026-04-07 22:00 59.55169 -24.33283 35387 ft 459 kts 275°
2026-04-07 22:01 59.56458 -24.45620 35369 ft 459 kts 275°
2026-04-07 22:01 59.57735 -24.57959 35362 ft 459 kts 275°
2026-04-07 22:02 59.59001 -24.70318 35375 ft 460 kts 275°
2026-04-07 22:02 59.60258 -24.82729 35336 ft 462 kts 275°
2026-04-07 22:03 59.61510 -24.95204 35340 ft 464 kts 275°
2026-04-07 22:03 59.63376 -25.14021 35301 ft 466 kts 275°
2026-04-07 22:04 59.64606 -25.26583 35297 ft 465 kts 275°
2026-04-07 22:04 59.65823 -25.39148 35278 ft 465 kts 275°
2026-04-07 22:05 59.67027 -25.51718 35270 ft 465 kts 275°
2026-04-07 22:05 59.68218 -25.64295 35270 ft 465 kts 274°
2026-04-07 22:06 59.69398 -25.76887 35271 ft 467 kts 275°
2026-04-07 22:06 59.70575 -25.89615 35249 ft 472 kts 275°
2026-04-07 22:07 59.71741 -26.02324 35228 ft 472 kts 275°
2026-04-07 22:07 59.72911 -26.15210 35228 ft 472 kts 275°
2026-04-07 22:08 59.74051 -26.27922 35228 ft 472 kts 275°
2026-04-07 22:08 59.75185 -26.40730 35203 ft 472 kts 274°
2026-04-07 22:09 59.76307 -26.53547 35207 ft 472 kts 274°
2026-04-07 22:09 59.77418 -26.66396 35194 ft 473 kts 274°
2026-04-07 22:10 59.78518 -26.79271 35206 ft 473 kts 274°
2026-04-07 22:10 59.79608 -26.92189 35183 ft 475 kts 274°
2026-04-07 22:11 59.80690 -27.05154 35174 ft 476 kts 274°
2026-04-07 22:11 59.81759 -27.18128 35175 ft 476 kts 274°
2026-04-07 22:12 59.82815 -27.31108 35170 ft 476 kts 274°
2026-04-07 22:12 59.83858 -27.44106 35167 ft 477 kts 274°
2026-04-07 22:13 59.84891 -27.57146 35156 ft 477 kts 274°
2026-04-07 22:13 59.85912 -27.70196 35155 ft 477 kts 274°
2026-04-07 22:14 59.86920 -27.83248 35175 ft 477 kts 274°
2026-04-07 22:14 59.87916 -27.96330 35141 ft 479 kts 274°
2026-04-07 22:15 59.88902 -28.09466 35128 ft 480 kts 274°
2026-04-07 22:15 59.89877 -28.22618 35128 ft 480 kts 274°
2026-04-07 22:16 59.90837 -28.35765 35118 ft 480 kts 273°
2026-04-07 22:16 59.91785 -28.48924 35110 ft 479 kts 273°
2026-04-07 22:17 59.92718 -28.62083 35106 ft 479 kts 273°
2026-04-07 22:17 59.93639 -28.75251 35106 ft 479 kts 273°
2026-04-07 22:18 59.94539 -28.88324 35123 ft 479 kts 273°
2026-04-07 22:18 59.95434 -29.01516 35082 ft 481 kts 273°
2026-04-07 22:19 59.96318 -29.14759 35077 ft 482 kts 273°
2026-04-07 22:19 59.97191 -29.28013 35073 ft 482 kts 272°
2026-04-07 22:20 59.98049 -29.41265 35060 ft 481 kts 272°
2026-04-07 22:20 59.98895 -29.54530 35059 ft 481 kts 272°
2026-04-07 22:21 59.99726 -29.67798 35056 ft 481 kts 272°
2026-04-07 22:21 60.00544 -29.81061 35049 ft 481 kts 272°
2026-04-07 22:22 60.01336 -29.94326 35035 ft 480 kts 271°
2026-04-07 22:22 60.01185 -30.07498 35036 ft 473 kts 261°
2026-04-07 22:23 60.00459 -30.20572 35035 ft 473 kts 259°
2026-04-07 22:23 59.99630 -30.33613 35018 ft 473 kts 259°
2026-04-07 22:24 59.98790 -30.46657 35015 ft 473 kts 259°
2026-04-07 22:24 59.97953 -30.59683 35017 ft 473 kts 258°
2026-04-07 22:25 59.97111 -30.72683 35014 ft 471 kts 259°
2026-04-07 22:25 59.96257 -30.85671 35009 ft 472 kts 258°
2026-04-07 22:26 59.95397 -30.98551 35000 ft 472 kts 258°
2026-04-07 22:26 59.94517 -31.11523 34990 ft 471 kts 258°
2026-04-07 22:27 59.93625 -31.24481 35001 ft 472 kts 258°
2026-04-07 22:27 59.92722 -31.37403 34988 ft 470 kts 258°
2026-04-07 22:28 59.91806 -31.50326 34987 ft 470 kts 258°
2026-04-07 22:28 59.90878 -31.63228 34990 ft 471 kts 258°
2026-04-07 22:29 59.89932 -31.76184 34970 ft 475 kts 258°
2026-04-07 22:29 59.88964 -31.89254 34966 ft 478 kts 258°
2026-04-07 22:30 59.87984 -32.02348 34964 ft 478 kts 258°
2026-04-07 22:30 59.86991 -32.15421 34963 ft 477 kts 258°
2026-04-07 22:31 59.85984 -32.28483 34957 ft 477 kts 258°
2026-04-07 22:31 59.84965 -32.41535 34948 ft 477 kts 258°
2026-04-07 22:32 59.83933 -32.54578 34942 ft 477 kts 258°
2026-04-07 22:32 59.82888 -32.67606 34941 ft 477 kts 258°
2026-04-07 22:33 59.81832 -32.80615 34931 ft 477 kts 258°
2026-04-07 22:33 59.80763 -32.93606 34931 ft 476 kts 257°
2026-04-07 22:34 59.79682 -33.06585 34919 ft 476 kts 257°
2026-04-07 22:34 59.78589 -33.19549 34919 ft 476 kts 257°
2026-04-07 22:35 59.77483 -33.32505 34936 ft 476 kts 257°
2026-04-07 22:35 59.76365 -33.45448 34920 ft 476 kts 257°
2026-04-07 22:36 59.75232 -33.58396 34914 ft 477 kts 257°
2026-04-07 22:36 59.74094 -33.71256 34907 ft 476 kts 257°
2026-04-07 22:37 59.72937 -33.84180 34907 ft 476 kts 257°
2026-04-07 22:37 59.71768 -33.97092 34904 ft 476 kts 257°
2026-04-07 22:38 59.70586 -34.09996 34906 ft 475 kts 257°
2026-04-07 22:38 59.69393 -34.22872 34897 ft 475 kts 257°
2026-04-07 22:39 59.68188 -34.35723 34893 ft 475 kts 257°
2026-04-07 22:39 59.66972 -34.48561 34900 ft 474 kts 257°
2026-04-07 22:40 59.65742 -34.61392 34900 ft 475 kts 256°
2026-04-07 22:40 59.64711 -34.72047 34922 ft 475 kts 257°
2026-04-07 22:41 59.63459 -34.84864 34904 ft 475 kts 257°
2026-04-07 22:41 59.62194 -34.97676 34899 ft 475 kts 257°
2026-04-07 22:42 59.60916 -35.10475 34922 ft 475 kts 257°
2026-04-07 22:42 59.59622 -35.23298 34917 ft 477 kts 256°
2026-04-07 22:43 59.58314 -35.36134 34919 ft 477 kts 256°
2026-04-07 22:43 59.56993 -35.48959 34919 ft 477 kts 256°
2026-04-07 22:44 59.55659 -35.61781 34920 ft 477 kts 256°
2026-04-07 22:44 59.54313 -35.74588 34939 ft 477 kts 256°
2026-04-07 22:45 59.52955 -35.87384 34942 ft 477 kts 256°
2026-04-07 22:45 59.51585 -36.00160 34942 ft 477 kts 256°
2026-04-07 22:46 59.50203 -36.12926 34950 ft 476 kts 256°
2026-04-07 22:46 59.48810 -36.25667 34945 ft 476 kts 256°
2026-04-07 22:47 59.47405 -36.38389 34949 ft 476 kts 256°
2026-04-07 22:47 59.45988 -36.51098 34967 ft 476 kts 255°
2026-04-07 22:48 59.44559 -36.63792 34972 ft 476 kts 255°
2026-04-07 22:48 59.43129 -36.76383 34976 ft 476 kts 255°
2026-04-07 22:49 59.41667 -36.89139 34975 ft 475 kts 255°
2026-04-07 22:49 59.40214 -37.01686 34974 ft 474 kts 255°
2026-04-07 22:50 59.38740 -37.14308 34985 ft 474 kts 255°
2026-04-07 22:50 59.37255 -37.26911 35000 ft 474 kts 255°
2026-04-07 22:51 59.35756 -37.39509 35000 ft 474 kts 255°
2026-04-07 22:51 59.34247 -37.52087 35003 ft 474 kts 255°
2026-04-07 22:52 59.32717 -37.64727 35004 ft 474 kts 255°
2026-04-07 22:52 59.31195 -37.77184 35012 ft 474 kts 255°
2026-04-07 22:53 59.29651 -37.89717 35012 ft 474 kts 254°
2026-04-07 22:53 59.28095 -38.02238 35020 ft 473 kts 254°
2026-04-07 22:54 59.26528 -38.14736 35023 ft 473 kts 254°
2026-04-07 22:54 59.24949 -38.27220 35029 ft 473 kts 254°
2026-04-07 22:55 59.23349 -38.39774 35043 ft 473 kts 254°
2026-04-07 22:55 59.21745 -38.52246 35048 ft 474 kts 254°
2026-04-07 22:56 59.20137 -38.64643 35049 ft 474 kts 254°
2026-04-07 22:56 59.18508 -38.77103 35063 ft 474 kts 253°
2026-04-07 22:57 59.16869 -38.89540 35057 ft 473 kts 253°
2026-04-07 22:57 59.15221 -39.01942 35063 ft 473 kts 253°
2026-04-07 22:58 59.13560 -39.14336 35071 ft 473 kts 253°
2026-04-07 22:58 59.11889 -39.26710 35072 ft 473 kts 253°
2026-04-07 22:59 59.10206 -39.39071 35077 ft 472 kts 253°
2026-04-07 22:59 59.08512 -39.51410 35077 ft 472 kts 253°
2026-04-07 23:00 59.06808 -39.63727 35087 ft 472 kts 253°
2026-04-07 23:00 59.05093 -39.76033 35093 ft 471 kts 253°
2026-04-07 23:01 59.03367 -39.88315 35097 ft 471 kts 252°
2026-04-07 23:02 59.01277 -40.06979 35099 ft 474 kts 260°
2026-04-07 23:02 59.00464 -40.19695 35104 ft 475 kts 261°
2026-04-07 23:03 58.99708 -40.32412 35108 ft 474 kts 261°
2026-04-07 23:03 58.98936 -40.45117 35116 ft 474 kts 261°
2026-04-07 23:04 58.98140 -40.57807 35116 ft 474 kts 261°
2026-04-07 23:04 58.97327 -40.70494 35128 ft 474 kts 260°
2026-04-07 23:05 58.96501 -40.83160 35139 ft 474 kts 260°
2026-04-07 23:05 58.95663 -40.95823 35132 ft 474 kts 260°
2026-04-07 23:06 58.94820 -41.08386 35141 ft 473 kts 260°
2026-04-07 23:06 58.93959 -41.21020 35153 ft 473 kts 260°
2026-04-07 23:07 58.93085 -41.33659 35156 ft 474 kts 260°
2026-04-07 23:07 58.92197 -41.46316 35157 ft 474 kts 260°
2026-04-07 23:08 58.91297 -41.58962 35172 ft 474 kts 259°
2026-04-07 23:08 58.90386 -41.71589 35174 ft 474 kts 259°
2026-04-07 23:09 58.89463 -41.84193 35175 ft 473 kts 259°
2026-04-07 23:09 58.88528 -41.96793 35174 ft 473 kts 259°
2026-04-07 23:10 58.87582 -42.09374 35172 ft 473 kts 259°
2026-04-07 23:10 58.86623 -42.21954 35199 ft 473 kts 259°
2026-04-07 23:11 58.85652 -42.34516 35216 ft 473 kts 258°
2026-04-07 23:11 58.84674 -42.47025 35203 ft 469 kts 258°
2026-04-07 23:12 58.83688 -42.59467 35215 ft 469 kts 257°
2026-04-07 23:12 58.82690 -42.71887 35214 ft 468 kts 258°
2026-04-07 23:13 58.81680 -42.84309 35217 ft 467 kts 257°
2026-04-07 23:13 58.80660 -42.96706 35220 ft 469 kts 258°
2026-04-07 23:14 58.79628 -43.09097 35242 ft 468 kts 258°
2026-04-07 23:14 58.78590 -43.21404 35239 ft 467 kts 257°
2026-04-07 23:15 58.77528 -43.33857 35244 ft 468 kts 257°
2026-04-07 23:15 58.76470 -43.46116 35245 ft 467 kts 257°
2026-04-07 23:16 58.75390 -43.58473 35250 ft 467 kts 257°
2026-04-07 23:16 58.74297 -43.70838 35249 ft 470 kts 257°
2026-04-07 23:17 58.73192 -43.83217 35257 ft 469 kts 257°
2026-04-07 23:17 58.72074 -43.95587 35262 ft 469 kts 257°
2026-04-07 23:18 58.70944 -44.07952 35268 ft 469 kts 257°
2026-04-07 23:18 58.69803 -44.20296 35270 ft 469 kts 257°
2026-04-07 23:19 58.68650 -44.32646 35272 ft 469 kts 257°
2026-04-07 23:19 58.67485 -44.44983 35276 ft 470 kts 256°
2026-04-07 23:20 58.66308 -44.57308 35286 ft 469 kts 257°
2026-04-07 23:20 58.65120 -44.69619 35292 ft 469 kts 257°
2026-04-07 23:21 58.63913 -44.81990 35289 ft 473 kts 257°
2026-04-07 23:21 58.62689 -44.94416 35290 ft 474 kts 257°
2026-04-07 23:22 58.61454 -45.06823 35288 ft 474 kts 256°
2026-04-07 23:22 58.60207 -45.19224 35295 ft 473 kts 256°
2026-04-07 23:23 58.58948 -45.31610 35294 ft 473 kts 256°
2026-04-07 23:23 58.57679 -45.43974 35306 ft 473 kts 256°
2026-04-07 23:24 58.56398 -45.56320 35307 ft 472 kts 256°
2026-04-07 23:24 58.55106 -45.68654 35302 ft 473 kts 256°
2026-04-07 23:25 58.53802 -45.80986 35321 ft 473 kts 256°
2026-04-07 23:25 58.52485 -45.93314 35309 ft 473 kts 256°
2026-04-07 23:26 58.51381 -46.03563 35312 ft 473 kts 256°
2026-04-07 23:26 58.50043 -46.15868 35312 ft 472 kts 255°
2026-04-07 23:27 58.48694 -46.28163 35320 ft 472 kts 255°
2026-04-07 23:27 58.47334 -46.40440 35320 ft 472 kts 255°
2026-04-07 23:28 58.45962 -46.52706 35323 ft 472 kts 255°
2026-04-07 23:28 58.44579 -46.64957 35320 ft 472 kts 255°
2026-04-07 23:29 58.43185 -46.77193 35322 ft 471 kts 255°
2026-04-07 23:29 58.41782 -46.89400 35325 ft 471 kts 255°
2026-04-07 23:30 58.40367 -47.01598 35327 ft 471 kts 255°
2026-04-07 23:30 58.38938 -47.13801 35327 ft 472 kts 255°
2026-04-07 23:31 58.37497 -47.26003 35329 ft 472 kts 255°
2026-04-07 23:31 58.36046 -47.38189 35346 ft 472 kts 254°
2026-04-07 23:32 58.34584 -47.50350 35328 ft 470 kts 254°
2026-04-07 23:32 58.33114 -47.62473 35331 ft 470 kts 254°
2026-04-07 23:33 58.31643 -47.74504 35331 ft 470 kts 254°
2026-04-07 23:33 58.30150 -47.86608 35339 ft 470 kts 254°
2026-04-07 23:34 58.28647 -47.98693 35330 ft 470 kts 254°
2026-04-07 23:34 58.27133 -48.10768 35341 ft 470 kts 253°
2026-04-07 23:35 58.25606 -48.22843 35337 ft 470 kts 253°
2026-04-07 23:35 58.24068 -48.34901 35337 ft 470 kts 253°
2026-04-07 23:36 58.22519 -48.46950 35337 ft 470 kts 253°
2026-04-07 23:36 58.20959 -48.58983 35340 ft 470 kts 253°
2026-04-07 23:37 58.19388 -48.71003 35340 ft 470 kts 253°
2026-04-07 23:37 58.17806 -48.83013 35343 ft 470 kts 253°
2026-04-07 23:38 58.16214 -48.94998 35339 ft 469 kts 253°
2026-04-07 23:38 58.14612 -49.06969 35340 ft 469 kts 253°
2026-04-07 23:39 58.12999 -49.18920 35341 ft 469 kts 253°
2026-04-07 23:39 58.11376 -49.30862 35339 ft 469 kts 253°
2026-04-07 23:40 58.09741 -49.42790 35342 ft 468 kts 252°
2026-04-07 23:40 58.08096 -49.54707 35342 ft 468 kts 252°
2026-04-07 23:41 58.06439 -49.66610 35348 ft 468 kts 252°
2026-04-07 23:41 58.04773 -49.78495 35351 ft 468 kts 252°
2026-04-07 23:42 58.03094 -49.90378 35353 ft 468 kts 252°
2026-04-07 23:42 58.01406 -50.02241 35353 ft 468 kts 252°
2026-04-07 23:43 57.99632 -50.14042 35353 ft 468 kts 251°
2026-04-07 23:43 57.97796 -50.25800 35376 ft 467 kts 250°
2026-04-07 23:44 57.95967 -50.37491 35372 ft 465 kts 250°
2026-04-07 23:44 57.94143 -50.49153 35381 ft 464 kts 251°
2026-04-07 23:45 57.92311 -50.60809 35380 ft 464 kts 250°
2026-04-07 23:45 57.90484 -50.72363 35404 ft 464 kts 250°
2026-04-07 23:46 57.88634 -50.83972 35404 ft 464 kts 250°
2026-04-07 23:46 57.86780 -50.95541 35402 ft 460 kts 250°
2026-04-07 23:47 57.84928 -51.07015 35417 ft 458 kts 250°
2026-04-07 23:47 57.83067 -51.18458 35418 ft 458 kts 250°
2026-04-07 23:48 57.81197 -51.29886 35441 ft 459 kts 249°
2026-04-07 23:48 57.79315 -51.41312 35441 ft 460 kts 249°
2026-04-07 23:49 57.77418 -51.52759 35460 ft 460 kts 249°
2026-04-07 23:49 57.75508 -51.64207 35451 ft 460 kts 249°
2026-04-07 23:50 57.73588 -51.75646 35454 ft 461 kts 249°
2026-04-07 23:50 57.71657 -51.87074 35469 ft 461 kts 249°
2026-04-07 23:51 57.69718 -51.98481 35469 ft 460 kts 249°
2026-04-07 23:51 57.67768 -52.09875 35482 ft 460 kts 249°
2026-04-07 23:52 57.65808 -52.21256 35485 ft 460 kts 249°
2026-04-07 23:52 57.63837 -52.32626 35496 ft 460 kts 249°
2026-04-07 23:53 57.61857 -52.43979 35524 ft 460 kts 249°
2026-04-07 23:53 57.59864 -52.55337 35496 ft 462 kts 249°
2026-04-07 23:54 57.57856 -52.66709 35511 ft 462 kts 249°
2026-04-07 23:54 57.55837 -52.78074 35512 ft 462 kts 249°
2026-04-07 23:55 57.53809 -52.89423 35526 ft 462 kts 249°
2026-04-07 23:55 57.51770 -53.00759 35526 ft 462 kts 248°
2026-04-07 23:56 57.49734 -53.12012 35537 ft 462 kts 248°
2026-04-07 23:56 57.47674 -53.23327 35537 ft 462 kts 248°
2026-04-07 23:57 57.45605 -53.34623 35536 ft 462 kts 248°
2026-04-07 23:57 57.43527 -53.45902 35553 ft 462 kts 248°
2026-04-07 23:58 57.41438 -53.57175 35557 ft 462 kts 248°
2026-04-07 23:58 57.39339 -53.68431 35567 ft 462 kts 248°
2026-04-07 23:59 57.37228 -53.79687 35563 ft 462 kts 248°
2026-04-07 23:59 57.35109 -53.90920 35580 ft 462 kts 248°
2026-04-08 00:00 57.32979 -54.02142 35582 ft 462 kts 248°
2026-04-08 00:00 57.30840 -54.13347 35603 ft 462 kts 248°
2026-04-08 00:01 57.28700 -54.24500 35595 ft 458 kts 247°
2026-04-08 00:01 57.26561 -54.35579 35594 ft 457 kts 247°
2026-04-08 00:02 57.24414 -54.46631 35607 ft 457 kts 247°
2026-04-08 00:02 57.22256 -54.57674 35617 ft 457 kts 247°
2026-04-08 00:03 57.20100 -54.68650 35618 ft 459 kts 247°
2026-04-08 00:03 57.16819 -54.85240 35623 ft 458 kts 247°
2026-04-08 00:04 57.14634 -54.96214 35638 ft 455 kts 247°
2026-04-08 00:04 57.12445 -55.07140 35635 ft 455 kts 247°
2026-04-08 00:05 57.10245 -55.18062 35648 ft 455 kts 247°
2026-04-08 00:05 57.08035 -55.28974 35652 ft 455 kts 246°
2026-04-08 00:06 57.05818 -55.39864 35659 ft 455 kts 246°
2026-04-08 00:06 57.03595 -55.50720 35672 ft 454 kts 246°
2026-04-08 00:07 57.01368 -55.61538 35701 ft 453 kts 247°
2026-04-08 00:07 56.99131 -55.72350 35677 ft 453 kts 246°
2026-04-08 00:08 56.96884 -55.83148 35671 ft 453 kts 246°
2026-04-08 00:08 56.94627 -55.93939 35692 ft 453 kts 246°
2026-04-08 00:09 56.92361 -56.04712 35689 ft 454 kts 246°
2026-04-08 00:09 56.90088 -56.15466 35710 ft 453 kts 246°
2026-04-08 00:10 56.87806 -56.26202 35706 ft 453 kts 246°
2026-04-08 00:10 56.85513 -56.36934 35707 ft 453 kts 246°
2026-04-08 00:11 56.83211 -56.47654 35725 ft 453 kts 246°
2026-04-08 00:11 56.80902 -56.58349 35722 ft 453 kts 246°
2026-04-08 00:12 56.78585 -56.69027 35744 ft 453 kts 246°
2026-04-08 00:12 56.76263 -56.79676 35747 ft 452 kts 246°
2026-04-08 00:13 56.73949 -56.90228 35766 ft 452 kts 246°
2026-04-08 00:13 56.71506 -57.00737 35765 ft 450 kts 240°
2026-04-08 00:14 56.68334 -57.10525 35763 ft 448 kts 237°
2026-04-08 00:14 56.65543 -57.18566 35773 ft 448 kts 236°
2026-04-08 00:15 56.62179 -57.28114 35778 ft 448 kts 236°
2026-04-08 00:15 56.58824 -57.37628 35782 ft 447 kts 236°
2026-04-08 00:16 56.55471 -57.47136 35787 ft 447 kts 236°
2026-04-08 00:16 56.52114 -57.56631 35811 ft 447 kts 236°
2026-04-08 00:17 56.48775 -57.66039 35808 ft 447 kts 236°
2026-04-08 00:17 56.45406 -57.75490 35825 ft 447 kts 236°
2026-04-08 00:18 56.42039 -57.84902 35840 ft 445 kts 236°
2026-04-08 00:18 56.38667 -57.94289 35822 ft 446 kts 236°
2026-04-08 00:19 56.35334 -58.03732 35822 ft 447 kts 240°
2026-04-08 00:19 56.33096 -58.14179 35835 ft 450 kts 256°
2026-04-08 00:20 56.32187 -58.25373 35836 ft 453 kts 261°
2026-04-08 00:20 56.31527 -58.36644 35837 ft 451 kts 261°
2026-04-08 00:21 56.30874 -58.47904 35848 ft 452 kts 261°
2026-04-08 00:21 56.30183 -58.59139 35848 ft 451 kts 261°
2026-04-08 00:22 56.29465 -58.70370 35865 ft 451 kts 261°
2026-04-08 00:22 56.28733 -58.81603 35856 ft 453 kts 261°
2026-04-08 00:23 56.27990 -58.92864 35856 ft 453 kts 260°
2026-04-08 00:23 56.27237 -59.04133 35855 ft 454 kts 260°
2026-04-08 00:24 56.26474 -59.15394 35862 ft 454 kts 260°
2026-04-08 00:24 56.25701 -59.26658 35865 ft 453 kts 260°
2026-04-08 00:25 56.24919 -59.37892 35859 ft 453 kts 260°
2026-04-08 00:25 56.24126 -59.49124 35867 ft 452 kts 260°
2026-04-08 00:26 56.23323 -59.60359 35875 ft 453 kts 260°
2026-04-08 00:26 56.22510 -59.71579 35877 ft 453 kts 259°
2026-04-08 00:27 56.21687 -59.82801 35879 ft 452 kts 259°
2026-04-08 00:27 56.20854 -59.94011 35884 ft 453 kts 259°
2026-04-08 00:28 56.20011 -60.05210 35883 ft 452 kts 259°
2026-04-08 00:28 56.19158 -60.16400 35900 ft 452 kts 260°
2026-04-08 00:29 56.18295 -60.27592 35896 ft 453 kts 259°
2026-04-08 00:29 56.17423 -60.38772 35894 ft 452 kts 259°
2026-04-08 00:30 56.16540 -60.49942 35891 ft 452 kts 259°
2026-04-08 00:30 56.15648 -60.61102 35895 ft 452 kts 259°
2026-04-08 00:31 56.14746 -60.72257 35895 ft 452 kts 259°
2026-04-08 00:31 56.13834 -60.83410 35890 ft 452 kts 259°
2026-04-08 00:32 56.12911 -60.94555 35889 ft 452 kts 259°
2026-04-08 00:32 56.11985 -61.05631 35892 ft 452 kts 259°
2026-04-08 00:33 56.11043 -61.16757 35893 ft 451 kts 259°
2026-04-08 00:33 56.10085 -61.27948 35893 ft 451 kts 259°
2026-04-08 00:34 56.09131 -61.38976 35903 ft 451 kts 259°
2026-04-08 00:34 56.08160 -61.50079 35903 ft 451 kts 259°
2026-04-08 00:35 56.07180 -61.61171 35918 ft 451 kts 259°
2026-04-08 00:35 56.06189 -61.72268 35909 ft 452 kts 258°
2026-04-08 00:36 56.05187 -61.83373 35909 ft 452 kts 258°
2026-04-08 00:36 56.04176 -61.94457 35908 ft 451 kts 258°
2026-04-08 00:37 56.03155 -62.05536 35923 ft 451 kts 258°
2026-04-08 00:37 56.02125 -62.16594 35921 ft 451 kts 258°
2026-04-08 00:38 56.01085 -62.27655 35924 ft 451 kts 258°
2026-04-08 00:38 56.00034 -62.38710 35945 ft 452 kts 258°
2026-04-08 00:39 55.98972 -62.49776 35948 ft 452 kts 258°
2026-04-08 00:39 55.97900 -62.60841 35947 ft 452 kts 258°
2026-04-08 00:40 55.96818 -62.71899 35951 ft 452 kts 258°
2026-04-08 00:40 55.95727 -62.82945 35957 ft 451 kts 258°
2026-04-08 00:41 55.94628 -62.93969 35960 ft 451 kts 258°
2026-04-08 00:41 55.93526 -63.04911 35977 ft 451 kts 258°
2026-04-08 00:42 55.92405 -63.15936 35953 ft 452 kts 258°
2026-04-08 00:42 55.91273 -63.26973 35968 ft 453 kts 258°
2026-04-08 00:43 55.90131 -63.38002 35958 ft 452 kts 258°
2026-04-08 00:43 55.88979 -63.49022 35969 ft 452 kts 258°
2026-04-08 00:44 55.87818 -63.60038 35985 ft 452 kts 258°
2026-04-08 00:44 55.86646 -63.71048 35971 ft 452 kts 257°
2026-04-08 00:45 55.85466 -63.82040 35982 ft 452 kts 257°
2026-04-08 00:45 55.84276 -63.93018 35995 ft 452 kts 257°
2026-04-08 00:46 55.83078 -64.03986 35989 ft 452 kts 257°
2026-04-08 00:46 55.81870 -64.14948 36000 ft 452 kts 257°
2026-04-08 00:47 55.80653 -64.25898 36002 ft 452 kts 257°
2026-04-08 00:47 55.79425 -64.36845 36003 ft 451 kts 257°
2026-04-08 00:48 55.78188 -64.47781 36014 ft 451 kts 257°
2026-04-08 00:48 55.76951 -64.58620 36006 ft 451 kts 257°
2026-04-08 00:49 55.75697 -64.69523 36007 ft 451 kts 257°
2026-04-08 00:49 55.74433 -64.80419 36009 ft 451 kts 257°
2026-04-08 00:50 55.73152 -64.91377 36009 ft 451 kts 257°
2026-04-08 00:50 55.71878 -65.02181 36007 ft 450 kts 257°
2026-04-08 00:51 55.70586 -65.13054 36016 ft 450 kts 257°
2026-04-08 00:51 55.69285 -65.23910 36016 ft 450 kts 257°
2026-04-08 00:52 55.67973 -65.34770 36011 ft 450 kts 256°
2026-04-08 00:52 55.66657 -65.45581 36012 ft 448 kts 256°
2026-04-08 00:53 55.65333 -65.56371 36020 ft 448 kts 256°
2026-04-08 00:53 55.64000 -65.67149 36019 ft 448 kts 256°
2026-04-08 00:54 55.62657 -65.77921 36021 ft 448 kts 256°
2026-04-08 00:54 55.61305 -65.88684 36033 ft 448 kts 256°
2026-04-08 00:55 55.59942 -65.99452 36023 ft 449 kts 256°
2026-04-08 00:55 55.58570 -66.10215 36023 ft 449 kts 256°
2026-04-08 00:56 55.57188 -66.20973 36020 ft 449 kts 256°
2026-04-08 00:56 55.55798 -66.31709 36021 ft 448 kts 256°
2026-04-08 00:57 55.54401 -66.42419 36023 ft 448 kts 256°
2026-04-08 00:57 55.52996 -66.53117 36028 ft 448 kts 256°
2026-04-08 00:58 55.51579 -66.63821 36029 ft 447 kts 256°
2026-04-08 00:58 55.50164 -66.74436 36032 ft 447 kts 256°
2026-04-08 00:59 55.48730 -66.85115 36034 ft 447 kts 256°
2026-04-08 00:59 55.47288 -66.95780 36034 ft 447 kts 255°
2026-04-08 01:00 55.45836 -67.06439 36037 ft 447 kts 256°
2026-04-08 01:00 55.44614 -67.15350 36040 ft 447 kts 255°
2026-04-08 01:01 55.42909 -67.27700 36044 ft 446 kts 256°
2026-04-08 01:01 55.41671 -67.36600 36046 ft 447 kts 255°
2026-04-08 01:02 55.40186 -67.47214 36047 ft 447 kts 255°
2026-04-08 01:02 55.38692 -67.57817 36047 ft 447 kts 255°
2026-04-08 01:03 55.37188 -67.68419 36048 ft 447 kts 255°
2026-04-08 01:04 55.34917 -67.84291 36040 ft 446 kts 255°
2026-04-08 01:04 55.33394 -67.94844 36053 ft 445 kts 255°
2026-04-08 01:05 55.31868 -68.05345 36050 ft 444 kts 255°
2026-04-08 01:05 55.30334 -68.15833 36048 ft 443 kts 255°
2026-04-08 01:06 55.28791 -68.26315 36049 ft 444 kts 255°
2026-04-08 01:06 55.27240 -68.36782 36049 ft 443 kts 255°
2026-04-08 01:07 55.25680 -68.47242 36041 ft 443 kts 255°
2026-04-08 01:07 55.24112 -68.57689 36057 ft 443 kts 255°
2026-04-08 01:08 55.22532 -68.68139 36044 ft 444 kts 255°
2026-04-08 01:08 55.20943 -68.78592 36050 ft 444 kts 255°
2026-04-08 01:09 55.19342 -68.89048 36057 ft 444 kts 255°
2026-04-08 01:09 55.17746 -68.99412 36060 ft 444 kts 255°
2026-04-08 01:10 55.16129 -69.09841 36060 ft 444 kts 255°
2026-04-08 01:10 55.14506 -69.20248 36059 ft 444 kts 255°
2026-04-08 01:11 55.12871 -69.30665 36068 ft 444 kts 255°
2026-04-08 01:11 55.11226 -69.41080 36065 ft 445 kts 255°
2026-04-08 01:12 55.09571 -69.51494 36059 ft 445 kts 255°
2026-04-08 01:12 55.07908 -69.61892 36065 ft 444 kts 255°
2026-04-08 01:13 55.06238 -69.72268 36068 ft 444 kts 255°
2026-04-08 01:13 55.04560 -69.82638 36070 ft 444 kts 254°
2026-04-08 01:14 55.02874 -69.92990 36070 ft 444 kts 254°
2026-04-08 01:14 55.01182 -70.03344 36073 ft 444 kts 255°
2026-04-08 01:15 54.99590 -70.13751 36068 ft 445 kts 256°
2026-04-08 01:15 54.98037 -70.24175 36069 ft 444 kts 256°
2026-04-08 01:16 54.96463 -70.34576 36064 ft 444 kts 256°
2026-04-08 01:16 54.94869 -70.44944 36075 ft 443 kts 255°
2026-04-08 01:17 54.93263 -70.55295 36078 ft 443 kts 255°
2026-04-08 01:17 54.91648 -70.65637 36087 ft 443 kts 255°
2026-04-08 01:18 54.90025 -70.75970 36083 ft 443 kts 255°
2026-04-08 01:18 54.88394 -70.86299 36085 ft 443 kts 255°
2026-04-08 01:19 54.86753 -70.96621 36087 ft 443 kts 255°
2026-04-08 01:19 54.85104 -71.06933 36089 ft 443 kts 255°
2026-04-08 01:20 54.83445 -71.17239 36083 ft 443 kts 255°
2026-04-08 01:20 54.81780 -71.27521 36094 ft 442 kts 255°
2026-04-08 01:21 54.80109 -71.37781 36090 ft 442 kts 255°
2026-04-08 01:21 54.78440 -71.47968 36092 ft 442 kts 255°
2026-04-08 01:22 54.76752 -71.58209 36092 ft 442 kts 255°
2026-04-08 01:22 54.75054 -71.68452 36094 ft 442 kts 255°
2026-04-08 01:23 54.73348 -71.78679 36093 ft 442 kts 255°
2026-04-08 01:23 54.71633 -71.88900 36106 ft 442 kts 255°
2026-04-08 01:24 54.69910 -71.99111 36100 ft 443 kts 255°
2026-04-08 01:24 54.68176 -72.09327 36103 ft 443 kts 255°
2026-04-08 01:25 54.66434 -72.19530 36104 ft 443 kts 255°
2026-04-08 01:25 54.64683 -72.29724 36108 ft 443 kts 255°
2026-04-08 01:26 54.62925 -72.39908 36108 ft 443 kts 255°
2026-04-08 01:26 54.61157 -72.50085 36114 ft 443 kts 255°
2026-04-08 01:27 54.59382 -72.60249 36119 ft 443 kts 255°
2026-04-08 01:27 54.57595 -72.70418 36113 ft 443 kts 255°
2026-04-08 01:28 54.55801 -72.80578 36120 ft 443 kts 255°
2026-04-08 01:28 54.54000 -72.90714 36120 ft 442 kts 255°
2026-04-08 01:29 54.52193 -73.00822 36120 ft 441 kts 255°
2026-04-08 01:29 54.50380 -73.10916 36125 ft 441 kts 254°
2026-04-08 01:30 54.48559 -73.20999 36132 ft 441 kts 254°
2026-04-08 01:30 54.46742 -73.31004 36134 ft 441 kts 254°
2026-04-08 01:31 54.44904 -73.41070 36132 ft 441 kts 254°
2026-04-08 01:31 54.43058 -73.51121 36139 ft 441 kts 254°
2026-04-08 01:32 54.41205 -73.61162 36141 ft 441 kts 254°
2026-04-08 01:32 54.39343 -73.71189 36137 ft 441 kts 254°
2026-04-08 01:33 54.37477 -73.81192 36148 ft 440 kts 254°
2026-04-08 01:33 54.35604 -73.91179 36146 ft 440 kts 254°
2026-04-08 01:34 54.33720 -74.01170 36147 ft 440 kts 254°
2026-04-08 01:34 54.31828 -74.11145 36150 ft 440 kts 254°
2026-04-08 01:35 54.29929 -74.21111 36154 ft 440 kts 254°
2026-04-08 01:35 54.28021 -74.31068 36159 ft 440 kts 254°
2026-04-08 01:36 54.26106 -74.41012 36156 ft 440 kts 254°
2026-04-08 01:36 54.24182 -74.50946 36162 ft 439 kts 254°
2026-04-08 01:37 54.22256 -74.60843 36166 ft 439 kts 254°
2026-04-08 01:37 54.20324 -74.70725 36164 ft 439 kts 254°
2026-04-08 01:38 54.18395 -74.80540 36174 ft 439 kts 254°
2026-04-08 01:38 54.16445 -74.90406 36173 ft 439 kts 254°
2026-04-08 01:39 54.14487 -75.00264 36172 ft 439 kts 254°
2026-04-08 01:39 54.12522 -75.10107 36178 ft 438 kts 254°
2026-04-08 01:40 54.10549 -75.19940 36179 ft 439 kts 254°
2026-04-08 01:40 54.08569 -75.29764 36176 ft 438 kts 254°
2026-04-08 01:41 54.06583 -75.39564 36188 ft 437 kts 254°
2026-04-08 01:41 54.04592 -75.49341 36187 ft 437 kts 254°
2026-04-08 01:42 54.02593 -75.59107 36190 ft 437 kts 254°
2026-04-08 01:42 54.00585 -75.68871 36184 ft 437 kts 254°
2026-04-08 01:43 53.98571 -75.78617 36188 ft 437 kts 254°
2026-04-08 01:43 53.96550 -75.88351 36193 ft 437 kts 254°
2026-04-08 01:44 53.94520 -75.98077 36196 ft 437 kts 254°
2026-04-08 01:44 53.92484 -76.07788 36196 ft 437 kts 254°
2026-04-08 01:45 53.90444 -76.17472 36203 ft 436 kts 254°
2026-04-08 01:45 53.88398 -76.27135 36198 ft 435 kts 254°
2026-04-08 01:46 53.86344 -76.36792 36213 ft 435 kts 254°
2026-04-08 01:46 53.84283 -76.46436 36211 ft 435 kts 254°
2026-04-08 01:47 53.82215 -76.56066 36208 ft 435 kts 253°
2026-04-08 01:47 53.80138 -76.65691 36216 ft 435 kts 253°
2026-04-08 01:48 53.78406 -76.73686 36216 ft 435 kts 253°
2026-04-08 01:48 53.76315 -76.83292 36203 ft 435 kts 253°
2026-04-08 01:49 53.74220 -76.92873 36216 ft 434 kts 254°
2026-04-08 01:49 53.72122 -77.02422 36225 ft 433 kts 254°
2026-04-08 01:50 53.70019 -77.11953 36223 ft 433 kts 254°
2026-04-08 01:50 53.67907 -77.21481 36211 ft 433 kts 254°
2026-04-08 01:51 53.65788 -77.30998 36201 ft 433 kts 253°
2026-04-08 01:51 53.63662 -77.40504 36187 ft 433 kts 253°
2026-04-08 01:52 53.61527 -77.50002 36173 ft 433 kts 254°
2026-04-08 01:52 53.59388 -77.59477 36149 ft 433 kts 254°
2026-04-08 01:53 53.57245 -77.68928 36167 ft 432 kts 254°
2026-04-08 01:53 53.55096 -77.78359 36168 ft 432 kts 254°
2026-04-08 01:54 53.52941 -77.87781 36230 ft 432 kts 253°
2026-04-08 01:54 53.50778 -77.97191 36240 ft 432 kts 253°
2026-04-08 01:55 53.48608 -78.06591 36228 ft 432 kts 254°
2026-04-08 01:55 53.46433 -78.15972 36233 ft 431 kts 254°
2026-04-08 01:56 53.44250 -78.25345 36240 ft 431 kts 253°
2026-04-08 01:56 53.42062 -78.34701 36209 ft 431 kts 254°
2026-04-08 01:57 53.39885 -78.43969 36233 ft 430 kts 254°
2026-04-08 01:57 53.37686 -78.53287 36236 ft 430 kts 253°
2026-04-08 01:58 53.35484 -78.62583 36237 ft 430 kts 253°
2026-04-08 01:58 53.33274 -78.71870 36233 ft 429 kts 254°
2026-04-08 01:59 53.31059 -78.81137 36237 ft 429 kts 253°
2026-04-08 01:59 53.28836 -78.90397 36234 ft 429 kts 253°
2026-04-08 02:00 53.26607 -78.99647 36238 ft 429 kts 253°
2026-04-08 02:00 53.24371 -79.08881 36229 ft 429 kts 253°
2026-04-08 02:01 53.21006 -79.22704 36234 ft 428 kts 253°
2026-04-08 02:01 53.18760 -79.31884 36233 ft 428 kts 253°
2026-04-08 02:02 53.16507 -79.41059 36232 ft 428 kts 253°
2026-04-08 02:02 53.14245 -79.50230 36233 ft 428 kts 253°
2026-04-08 02:03 53.11977 -79.59385 36233 ft 428 kts 253°
2026-04-08 02:03 53.09702 -79.68530 36233 ft 428 kts 253°
2026-04-08 02:04 53.07420 -79.77663 36218 ft 428 kts 253°
2026-04-08 02:04 53.05133 -79.86783 36227 ft 427 kts 253°
2026-04-08 02:05 53.02839 -79.95892 36227 ft 427 kts 253°
2026-04-08 02:05 53.00552 -80.04990 36222 ft 426 kts 254°
2026-04-08 02:06 52.98351 -80.14123 36226 ft 426 kts 254°
2026-04-08 02:06 52.96165 -80.23261 36228 ft 426 kts 254°
2026-04-08 02:07 52.93960 -80.32383 36222 ft 426 kts 254°
2026-04-08 02:07 52.91740 -80.41483 36224 ft 426 kts 254°
2026-04-08 02:08 52.89512 -80.50566 36219 ft 425 kts 254°
2026-04-08 02:08 52.87281 -80.59628 36205 ft 425 kts 254°
2026-04-08 02:09 52.85043 -80.68679 36213 ft 424 kts 254°
2026-04-08 02:09 52.82802 -80.77710 36215 ft 424 kts 254°
2026-04-08 02:10 52.80554 -80.86732 36217 ft 424 kts 254°
2026-04-08 02:10 52.78301 -80.95737 36206 ft 424 kts 254°
2026-04-08 02:11 52.76057 -81.04669 36207 ft 424 kts 254°
2026-04-08 02:11 52.73793 -81.13644 36207 ft 424 kts 254°
2026-04-08 02:12 52.71521 -81.22616 36204 ft 424 kts 254°
2026-04-08 02:12 52.69244 -81.31573 36207 ft 424 kts 254°
2026-04-08 02:13 52.66960 -81.40516 36205 ft 422 kts 254°
2026-04-08 02:13 52.64679 -81.49414 36202 ft 421 kts 254°
2026-04-08 02:14 52.62396 -81.58285 36206 ft 420 kts 254°
2026-04-08 02:14 52.60108 -81.67144 36205 ft 420 kts 254°
2026-04-08 02:15 52.57817 -81.75982 36205 ft 420 kts 254°
2026-04-08 02:15 52.55518 -81.84813 36214 ft 420 kts 254°
2026-04-08 02:16 52.53211 -81.93637 36211 ft 420 kts 254°
2026-04-08 02:16 52.50898 -82.02451 36194 ft 420 kts 254°
2026-04-08 02:17 52.48581 -82.11245 36207 ft 419 kts 254°
2026-04-08 02:17 52.46265 -82.19998 36202 ft 418 kts 254°
2026-04-08 02:18 52.43947 -82.28730 36196 ft 418 kts 254°
2026-04-08 02:18 52.41622 -82.37461 36202 ft 418 kts 254°
2026-04-08 02:19 52.39306 -82.46118 36201 ft 418 kts 254°
2026-04-08 02:19 52.36968 -82.54827 36175 ft 418 kts 254°
2026-04-08 02:20 52.34625 -82.63516 36199 ft 417 kts 254°
2026-04-08 02:20 52.32279 -82.72187 36197 ft 417 kts 254°
2026-04-08 02:21 52.29926 -82.80852 36166 ft 417 kts 254°
2026-04-08 02:21 52.27572 -82.89488 36198 ft 416 kts 254°
2026-04-08 02:22 52.25214 -82.98105 36203 ft 416 kts 254°
2026-04-08 02:22 52.22850 -83.06716 36203 ft 416 kts 254°
2026-04-08 02:23 52.20481 -83.15307 36203 ft 415 kts 254°
2026-04-08 02:23 52.18112 -83.23871 36204 ft 414 kts 254°
2026-04-08 02:24 52.15738 -83.32423 36203 ft 414 kts 254°
2026-04-08 02:24 52.13357 -83.40966 36203 ft 414 kts 254°
2026-04-08 02:25 52.10970 -83.49501 36203 ft 414 kts 254°
2026-04-08 02:25 52.08577 -83.58026 36206 ft 414 kts 254°
2026-04-08 02:26 52.06179 -83.66531 36200 ft 414 kts 254°
2026-04-08 02:26 52.03780 -83.75012 36206 ft 413 kts 254°
2026-04-08 02:27 52.01377 -83.83480 36212 ft 413 kts 254°
2026-04-08 02:27 51.98969 -83.91937 36212 ft 413 kts 254°
2026-04-08 02:28 51.96553 -84.00391 36214 ft 413 kts 254°
2026-04-08 02:28 51.94131 -84.08832 36213 ft 413 kts 254°
2026-04-08 02:29 51.91704 -84.17261 36199 ft 413 kts 254°
2026-04-08 02:29 51.89273 -84.25674 36214 ft 412 kts 254°
2026-04-08 02:30 51.86855 -84.34012 36214 ft 412 kts 254°
2026-04-08 02:30 51.84401 -84.42449 36218 ft 412 kts 254°
2026-04-08 02:31 51.81972 -84.50768 36216 ft 412 kts 254°
2026-04-08 02:31 51.79521 -84.59131 36215 ft 412 kts 254°
2026-04-08 02:32 51.77064 -84.67488 36220 ft 412 kts 254°
2026-04-08 02:32 51.74600 -84.75838 36219 ft 412 kts 254°
2026-04-08 02:33 51.72131 -84.84174 36219 ft 412 kts 254°
2026-04-08 02:33 51.69654 -84.92508 36179 ft 412 kts 254°
2026-04-08 02:34 51.67174 -85.00825 36228 ft 412 kts 254°
2026-04-08 02:34 51.64690 -85.09125 36229 ft 411 kts 253°
2026-04-08 02:35 51.62621 -85.16018 36214 ft 411 kts 253°
2026-04-08 02:35 51.60128 -85.24297 36227 ft 411 kts 253°
2026-04-08 02:36 51.57635 -85.32549 36230 ft 410 kts 253°
2026-04-08 02:36 51.55134 -85.40795 36225 ft 410 kts 253°
2026-04-08 02:37 51.52629 -85.49031 36222 ft 410 kts 253°
2026-04-08 02:37 51.50122 -85.57248 36217 ft 410 kts 253°
2026-04-08 02:38 51.47602 -85.65475 36211 ft 410 kts 253°
2026-04-08 02:38 51.45081 -85.73678 36212 ft 410 kts 253°
2026-04-08 02:39 51.42558 -85.81859 36209 ft 409 kts 253°
2026-04-08 02:39 51.40030 -85.90030 36219 ft 409 kts 253°
2026-04-08 02:40 51.37496 -85.98195 36226 ft 409 kts 253°
2026-04-08 02:40 51.34956 -86.06351 36235 ft 409 kts 253°
2026-04-08 02:41 51.32410 -86.14497 36243 ft 410 kts 253°
2026-04-08 02:41 51.29858 -86.22636 36243 ft 409 kts 252°
2026-04-08 02:42 51.27320 -86.30703 36223 ft 409 kts 252°
2026-04-08 02:42 51.24757 -86.38826 36253 ft 410 kts 252°
2026-04-08 02:43 51.22188 -86.46939 36257 ft 410 kts 252°
2026-04-08 02:43 51.19610 -86.55051 36254 ft 410 kts 252°
2026-04-08 02:44 51.17029 -86.63146 36256 ft 410 kts 252°
2026-04-08 02:44 51.14443 -86.71234 36251 ft 410 kts 252°
2026-04-08 02:45 51.11849 -86.79319 36255 ft 410 kts 252°
2026-04-08 02:45 51.09250 -86.87390 36260 ft 410 kts 252°
2026-04-08 02:46 51.06646 -86.95452 36260 ft 410 kts 252°
2026-04-08 02:46 51.04039 -87.03500 36259 ft 410 kts 252°
2026-04-08 02:47 51.01422 -87.11551 36263 ft 410 kts 251°
2026-04-08 02:47 50.98802 -87.19585 36255 ft 410 kts 251°
2026-04-08 02:48 50.96176 -87.27609 36264 ft 410 kts 251°
2026-04-08 02:48 50.93547 -87.35619 36268 ft 410 kts 251°
2026-04-08 02:49 50.90929 -87.43570 36272 ft 410 kts 251°
2026-04-08 02:49 50.88289 -87.51561 36273 ft 409 kts 251°
2026-04-08 02:50 50.85644 -87.59544 36270 ft 409 kts 251°
2026-04-08 02:50 50.82992 -87.67519 36254 ft 409 kts 251°
2026-04-08 02:51 50.80337 -87.75482 36273 ft 409 kts 251°
2026-04-08 02:51 50.77677 -87.83431 36274 ft 409 kts 251°
2026-04-08 02:52 50.75013 -87.91371 36282 ft 409 kts 251°
2026-04-08 02:52 50.72343 -87.99301 36279 ft 409 kts 251°
2026-04-08 02:53 50.69668 -88.07221 36276 ft 409 kts 251°
2026-04-08 02:53 50.66986 -88.15137 36261 ft 409 kts 251°
2026-04-08 02:54 50.64301 -88.23034 36278 ft 409 kts 251°
2026-04-08 02:54 50.61611 -88.30920 36274 ft 409 kts 251°
2026-04-08 02:55 50.58912 -88.38815 36275 ft 410 kts 250°
2026-04-08 02:55 50.56202 -88.46714 36281 ft 410 kts 250°
2026-04-08 02:56 50.53488 -88.54598 36272 ft 410 kts 250°
2026-04-08 02:56 50.50768 -88.62477 36248 ft 410 kts 250°
2026-04-08 02:57 50.48043 -88.70346 36243 ft 410 kts 250°
2026-04-08 02:57 50.45315 -88.78201 36235 ft 410 kts 250°
2026-04-08 02:58 50.42580 -88.86049 36224 ft 410 kts 250°
2026-04-08 02:58 50.39839 -88.93889 36212 ft 411 kts 250°
2026-04-08 02:59 50.37089 -89.01738 36209 ft 411 kts 250°
2026-04-08 03:00 50.32948 -89.13503 36275 ft 411 kts 250°
2026-04-08 03:00 50.30177 -89.21343 36284 ft 411 kts 250°
2026-04-08 03:01 50.27421 -89.29119 36274 ft 411 kts 249°
2026-04-08 03:01 50.24643 -89.36935 36272 ft 412 kts 249°
2026-04-08 03:02 50.21857 -89.44747 36279 ft 412 kts 249°
2026-04-08 03:02 50.19067 -89.52549 36239 ft 411 kts 249°
2026-04-08 03:03 50.16269 -89.60352 36274 ft 413 kts 249°
2026-04-08 03:03 50.13459 -89.68163 36267 ft 413 kts 249°
2026-04-08 03:04 50.10640 -89.75969 36268 ft 413 kts 249°
2026-04-08 03:04 50.07819 -89.83761 36264 ft 413 kts 249°
2026-04-08 03:05 50.04992 -89.91546 36271 ft 413 kts 249°
2026-04-08 03:05 50.02154 -89.99319 36258 ft 414 kts 248°
2026-04-08 03:06 49.98884 -90.06791 36268 ft 420 kts 243°
2026-04-08 03:06 49.95457 -90.14141 36258 ft 421 kts 242°
2026-04-08 03:07 49.91995 -90.21474 36262 ft 421 kts 242°
2026-04-08 03:07 49.88535 -90.28797 36265 ft 421 kts 242°
2026-04-08 03:08 49.85072 -90.36123 36268 ft 421 kts 242°
2026-04-08 03:08 49.81610 -90.43435 36263 ft 421 kts 242°
2026-04-08 03:09 49.78143 -90.50739 36259 ft 421 kts 242°
2026-04-08 03:09 49.74673 -90.58028 36255 ft 421 kts 242°
2026-04-08 03:10 49.71193 -90.65319 36338 ft 422 kts 242°
2026-04-08 03:10 49.67666 -90.72704 36545 ft 432 kts 242°
2026-04-08 03:11 49.64054 -90.80239 36753 ft 441 kts 241°
2026-04-08 03:11 49.62244 -90.84000 36923 ft 444 kts 241°
2026-04-08 03:11 49.60378 -90.87869 37162 ft 444 kts 241°
2026-04-08 03:11 49.58528 -90.91695 37397 ft 445 kts 241°
2026-04-08 03:12 49.56701 -90.95469 37594 ft 446 kts 240°
2026-04-08 03:12 49.54817 -90.99362 37753 ft 449 kts 240°
2026-04-08 03:12 49.52947 -91.03219 37966 ft 450 kts 240°
2026-04-08 03:12 49.51006 -91.07012 38139 ft 456 kts 234°
2026-04-08 03:13 49.48692 -91.10310 38415 ft 461 kts 230°
2026-04-08 03:13 49.46379 -91.13687 38650 ft 457 kts 233°
2026-04-08 03:13 49.44220 -91.17246 38855 ft 454 kts 236°
2026-04-08 03:13 49.42196 -91.20952 39037 ft 452 kts 238°
2026-04-08 03:14 49.40266 -91.24747 39198 ft 450 kts 240°
2026-04-08 03:14 49.38385 -91.28587 39356 ft 450 kts 240°
2026-04-08 03:14 49.36525 -91.32440 39524 ft 449 kts 240°
2026-04-08 03:14 49.34667 -91.36292 39680 ft 449 kts 240°
2026-04-08 03:15 49.32807 -91.40125 39911 ft 447 kts 240°
2026-04-08 03:15 49.30944 -91.43939 40055 ft 447 kts 240°
2026-04-08 03:15 49.29072 -91.47751 40157 ft 448 kts 240°
2026-04-08 03:16 49.25303 -91.55363 40244 ft 448 kts 239°
2026-04-08 03:16 49.21516 -91.62915 40240 ft 447 kts 239°
2026-04-08 03:17 49.17700 -91.70437 40240 ft 448 kts 239°
2026-04-08 03:17 49.13895 -91.77961 40212 ft 447 kts 239°
2026-04-08 03:18 49.10138 -91.85508 40233 ft 446 kts 239°
2026-04-08 03:18 49.06378 -91.93045 40216 ft 446 kts 239°
2026-04-08 03:19 49.03204 -91.99376 40219 ft 446 kts 239°
2026-04-08 03:19 48.99427 -92.06879 40222 ft 446 kts 239°
2026-04-08 03:20 48.95643 -92.14373 40216 ft 446 kts 239°
2026-04-08 03:20 48.91852 -92.21859 40215 ft 447 kts 239°
2026-04-08 03:21 48.88059 -92.29330 40209 ft 447 kts 239°
2026-04-08 03:21 48.84254 -92.36802 40209 ft 447 kts 239°
2026-04-08 03:22 48.80445 -92.44262 40210 ft 447 kts 239°
2026-04-08 03:22 48.77277 -92.50451 40202 ft 447 kts 239°
2026-04-08 03:23 48.72840 -92.59096 40202 ft 447 kts 238°
2026-04-08 03:23 48.69018 -92.66520 40191 ft 448 kts 238°
2026-04-08 03:24 48.65806 -92.72743 40194 ft 448 kts 238°
2026-04-08 03:24 48.61968 -92.80161 40184 ft 448 kts 238°
2026-04-08 03:25 48.58122 -92.87572 40183 ft 448 kts 238°
2026-04-08 03:25 48.54269 -92.94976 40161 ft 448 kts 238°
2026-04-08 03:26 48.50411 -93.02370 40176 ft 448 kts 238°
2026-04-08 03:26 48.46551 -93.09748 40176 ft 448 kts 238°
2026-04-08 03:27 48.42712 -93.17065 40168 ft 448 kts 238°
2026-04-08 03:27 48.38843 -93.24420 40155 ft 448 kts 238°
2026-04-08 03:28 48.34947 -93.31806 40162 ft 448 kts 238°
2026-04-08 03:28 48.31100 -93.39078 40164 ft 447 kts 238°
2026-04-08 03:29 48.27224 -93.46387 40151 ft 447 kts 238°
2026-04-08 03:29 48.23352 -93.53666 40157 ft 446 kts 238°
2026-04-08 03:30 48.19480 -93.60928 40147 ft 446 kts 238°
2026-04-08 03:30 48.15606 -93.68173 40135 ft 445 kts 237°
2026-04-08 03:31 48.11725 -93.75414 40137 ft 446 kts 237°
2026-04-08 03:31 48.07839 -93.82642 40139 ft 446 kts 237°
2026-04-08 03:32 48.03947 -93.89863 40140 ft 446 kts 237°
2026-04-08 03:32 48.00052 -93.97071 40131 ft 446 kts 237°
2026-04-08 03:33 47.96150 -94.04270 40132 ft 446 kts 237°
2026-04-08 03:33 47.92245 -94.11457 40124 ft 446 kts 237°
2026-04-08 03:34 47.88334 -94.18637 40130 ft 446 kts 237°
2026-04-08 03:34 47.84416 -94.25809 40115 ft 446 kts 237°
2026-04-08 03:35 47.80499 -94.32960 40121 ft 445 kts 237°
2026-04-08 03:35 47.76582 -94.40095 40110 ft 445 kts 237°
2026-04-08 03:36 47.72658 -94.47222 40110 ft 445 kts 237°
2026-04-08 03:36 47.68728 -94.54342 40098 ft 446 kts 237°
2026-04-08 03:37 47.64795 -94.61448 40082 ft 446 kts 237°
2026-04-08 03:37 47.60854 -94.68550 40105 ft 446 kts 236°
2026-04-08 03:38 47.56911 -94.75637 40045 ft 446 kts 236°
2026-04-08 03:38 47.52964 -94.82713 40036 ft 446 kts 236°
2026-04-08 03:39 47.49009 -94.89784 40036 ft 446 kts 236°
2026-04-08 03:39 47.45050 -94.96844 40035 ft 446 kts 236°
2026-04-08 03:40 47.41065 -95.03938 40033 ft 451 kts 236°
2026-04-08 03:40 47.37046 -95.11068 40044 ft 452 kts 236°
2026-04-08 03:41 47.33017 -95.18193 40067 ft 452 kts 236°
2026-04-08 03:41 47.28988 -95.25302 40077 ft 452 kts 236°
2026-04-08 03:42 47.24955 -95.32399 40068 ft 452 kts 236°
2026-04-08 03:42 47.20913 -95.39496 40065 ft 453 kts 235°
2026-04-08 03:43 47.16859 -95.46595 40069 ft 453 kts 235°
2026-04-08 03:43 47.12796 -95.53692 40070 ft 454 kts 235°
2026-04-08 03:44 47.08732 -95.60770 40059 ft 454 kts 235°
2026-04-08 03:44 47.04662 -95.67841 40028 ft 454 kts 235°
2026-04-08 03:45 47.00584 -95.74909 39986 ft 454 kts 235°
2026-04-08 03:45 46.96492 -95.81982 39988 ft 455 kts 235°
2026-04-08 03:46 46.92418 -95.89004 39974 ft 456 kts 234°
2026-04-08 03:46 46.88311 -95.96065 39971 ft 456 kts 234°
2026-04-08 03:47 46.84200 -96.03115 39975 ft 456 kts 234°
2026-04-08 03:47 46.80084 -96.10156 39971 ft 456 kts 234°
2026-04-08 03:48 46.75961 -96.17191 39999 ft 456 kts 234°
2026-04-08 03:48 46.71837 -96.24209 40005 ft 456 kts 234°
2026-04-08 03:49 46.67710 -96.31215 40020 ft 456 kts 234°
2026-04-08 03:49 46.63576 -96.38215 40015 ft 456 kts 234°
2026-04-08 03:50 46.59439 -96.45201 40018 ft 456 kts 234°
2026-04-08 03:50 46.55302 -96.52169 40006 ft 454 kts 234°
2026-04-08 03:51 46.51175 -96.59101 40004 ft 453 kts 234°
2026-04-08 03:51 46.47048 -96.66018 39996 ft 453 kts 234°
2026-04-08 03:52 46.42919 -96.72921 39999 ft 453 kts 234°
2026-04-08 03:52 46.38786 -96.79815 39972 ft 453 kts 234°
2026-04-08 03:53 46.34649 -96.86695 39966 ft 453 kts 234°
2026-04-08 03:53 46.30500 -96.93579 39974 ft 454 kts 233°
2026-04-08 03:54 46.26346 -97.00455 39981 ft 454 kts 233°
2026-04-08 03:54 46.22186 -97.07322 39964 ft 454 kts 233°
2026-04-08 03:55 46.18019 -97.14185 39974 ft 454 kts 233°
2026-04-08 03:55 46.13850 -97.21032 39940 ft 455 kts 233°
2026-04-08 03:56 46.09667 -97.27887 39963 ft 456 kts 233°
2026-04-08 03:56 46.05494 -97.34708 39953 ft 457 kts 233°
2026-04-08 03:57 46.01292 -97.41558 39949 ft 457 kts 233°
2026-04-08 03:57 45.97086 -97.48398 39942 ft 457 kts 233°
2026-04-08 03:58 45.92875 -97.55230 39913 ft 457 kts 233°
2026-04-08 03:58 45.88658 -97.62054 39907 ft 457 kts 233°
2026-04-08 03:59 45.84434 -97.68872 39906 ft 457 kts 233°
2026-04-08 03:59 45.78091 -97.79079 39906 ft 457 kts 233°
2026-04-08 04:00 45.73857 -97.85872 39909 ft 457 kts 233°
2026-04-08 04:00 45.69621 -97.92651 39920 ft 457 kts 233°
2026-04-08 04:01 45.65380 -97.99422 39925 ft 457 kts 233°
2026-04-08 04:01 45.61132 -98.06188 39917 ft 458 kts 233°
2026-04-08 04:02 45.56877 -98.12946 39914 ft 458 kts 233°
2026-04-08 04:02 45.52617 -98.19697 39895 ft 458 kts 232°
2026-04-08 04:03 45.48381 -98.26394 39889 ft 458 kts 232°
2026-04-08 04:03 45.44104 -98.33141 39888 ft 459 kts 232°
2026-04-08 04:04 45.39749 -98.39821 39890 ft 463 kts 229°
2026-04-08 04:04 45.35051 -98.46092 39902 ft 463 kts 228°
2026-04-08 04:05 45.30365 -98.52375 39902 ft 463 kts 228°
2026-04-08 04:05 45.25696 -98.58677 39895 ft 463 kts 229°
2026-04-08 04:06 45.21029 -98.64980 39905 ft 464 kts 229°
2026-04-08 04:06 45.16350 -98.71290 39892 ft 465 kts 228°
2026-04-08 04:07 45.11664 -98.77596 39900 ft 465 kts 228°
2026-04-08 04:07 45.06973 -98.83892 39892 ft 465 kts 228°
2026-04-08 04:08 45.02282 -98.90175 39893 ft 464 kts 228°
2026-04-08 04:08 44.97580 -98.96459 39895 ft 466 kts 228°
2026-04-08 04:09 44.92861 -99.02749 39897 ft 466 kts 228°
2026-04-08 04:09 44.88937 -99.07969 39894 ft 467 kts 228°
2026-04-08 04:10 44.84212 -99.14239 39900 ft 467 kts 228°
2026-04-08 04:10 44.79482 -99.20502 39890 ft 467 kts 228°
2026-04-08 04:11 44.74746 -99.26758 39897 ft 467 kts 228°
2026-04-08 04:11 44.70005 -99.33006 39886 ft 467 kts 228°
2026-04-08 04:12 44.65256 -99.39249 39892 ft 467 kts 228°
2026-04-08 04:12 44.60507 -99.45478 39883 ft 467 kts 228°
2026-04-08 04:13 44.55748 -99.51706 39886 ft 468 kts 228°
2026-04-08 04:13 44.50983 -99.57926 39878 ft 468 kts 228°
2026-04-08 04:14 44.46217 -99.64135 39875 ft 468 kts 228°
2026-04-08 04:14 44.41443 -99.70338 39869 ft 468 kts 228°
2026-04-08 04:15 44.36667 -99.76530 39867 ft 468 kts 228°
2026-04-08 04:15 44.31883 -99.82716 39865 ft 468 kts 228°
2026-04-08 04:16 44.27139 -99.88838 39862 ft 467 kts 228°
2026-04-08 04:16 44.22338 -99.95017 39867 ft 466 kts 228°
2026-04-08 04:17 44.17606 -100.01096 39847 ft 466 kts 228°
2026-04-08 04:17 44.12830 -100.07217 39859 ft 467 kts 228°
2026-04-08 04:18 44.08045 -100.13336 39857 ft 468 kts 228°
2026-04-08 04:18 44.03247 -100.19455 39857 ft 468 kts 228°
2026-04-08 04:19 43.98455 -100.25553 39856 ft 466 kts 228°
2026-04-08 04:19 43.93684 -100.31611 39840 ft 465 kts 227°
2026-04-08 04:20 43.88901 -100.37672 39848 ft 466 kts 227°
2026-04-08 04:20 43.84111 -100.43726 39834 ft 466 kts 227°
2026-04-08 04:21 43.79314 -100.49776 39839 ft 466 kts 227°
2026-04-08 04:21 43.74513 -100.55816 39839 ft 466 kts 227°
2026-04-08 04:22 43.69714 -100.61841 39824 ft 466 kts 227°
2026-04-08 04:22 43.64913 -100.67855 39827 ft 466 kts 227°
2026-04-08 04:23 43.60109 -100.73858 39824 ft 466 kts 227°
2026-04-08 04:23 43.55303 -100.79852 39810 ft 466 kts 227°
2026-04-08 04:24 43.50493 -100.85835 39795 ft 466 kts 227°
2026-04-08 04:24 43.45675 -100.91816 39790 ft 466 kts 227°
2026-04-08 04:25 43.40854 -100.97788 39785 ft 466 kts 227°
2026-04-08 04:25 43.36029 -101.03751 39784 ft 467 kts 227°
2026-04-08 04:26 43.31199 -101.09706 39785 ft 467 kts 227°
2026-04-08 04:26 43.26363 -101.15656 39796 ft 467 kts 227°
2026-04-08 04:27 43.21511 -101.21613 39806 ft 468 kts 227°
2026-04-08 04:27 43.16649 -101.27568 39840 ft 469 kts 227°
2026-04-08 04:28 43.11786 -101.33510 39824 ft 469 kts 227°
2026-04-08 04:28 43.06919 -101.39445 39836 ft 469 kts 227°
2026-04-08 04:29 43.02045 -101.45376 39840 ft 470 kts 227°
2026-04-08 04:29 42.97155 -101.51314 39835 ft 470 kts 227°
2026-04-08 04:30 42.92259 -101.57243 39829 ft 471 kts 227°
2026-04-08 04:30 42.87361 -101.63163 39824 ft 471 kts 227°
2026-04-08 04:31 42.82458 -101.69076 39818 ft 471 kts 227°
2026-04-08 04:31 42.77548 -101.74984 39825 ft 471 kts 226°
2026-04-08 04:32 42.72630 -101.80889 39815 ft 471 kts 226°
2026-04-08 04:32 42.67710 -101.86784 39814 ft 471 kts 226°
2026-04-08 04:33 42.62787 -101.92668 39812 ft 471 kts 226°
2026-04-08 04:33 42.57859 -101.98547 39806 ft 472 kts 226°
2026-04-08 04:34 42.52924 -102.04421 39794 ft 472 kts 226°
2026-04-08 04:34 42.48010 -102.10256 39817 ft 473 kts 226°
2026-04-08 04:35 42.43024 -102.16164 39829 ft 473 kts 226°
2026-04-08 04:35 42.38099 -102.21988 39823 ft 473 kts 226°
2026-04-08 04:36 42.33138 -102.27841 39827 ft 474 kts 226°
2026-04-08 04:36 42.28175 -102.33685 39825 ft 473 kts 226°
2026-04-08 04:37 42.23211 -102.39515 39820 ft 473 kts 226°
2026-04-08 04:37 42.18239 -102.45344 39820 ft 474 kts 226°
2026-04-08 04:38 42.13262 -102.51164 39822 ft 474 kts 226°
2026-04-08 04:38 42.08281 -102.56978 39825 ft 474 kts 226°
2026-04-08 04:39 42.03295 -102.62785 39823 ft 474 kts 226°
2026-04-08 04:39 41.98308 -102.68580 39823 ft 474 kts 226°
2026-04-08 04:40 41.93313 -102.74371 39823 ft 474 kts 226°
2026-04-08 04:40 41.88319 -102.80150 39812 ft 474 kts 226°
2026-04-08 04:41 41.83332 -102.85907 39825 ft 472 kts 226°
2026-04-08 04:41 41.78348 -102.91650 39827 ft 472 kts 226°
2026-04-08 04:42 41.73361 -102.97384 39821 ft 472 kts 226°
2026-04-08 04:42 41.68371 -103.03109 39823 ft 472 kts 226°
2026-04-08 04:43 41.63380 -103.08820 39816 ft 472 kts 225°
2026-04-08 04:43 41.57810 -103.13599 39799 ft 484 kts 208°
2026-04-08 04:44 41.51198 -103.15689 39828 ft 498 kts 188°
2026-04-08 04:44 41.44244 -103.15975 39821 ft 500 kts 186°
2026-04-08 04:45 41.37277 -103.16194 39815 ft 501 kts 186°
2026-04-08 04:45 41.33818 -103.16312 39365 ft 496 kts 186°
2026-04-08 04:45 41.30353 -103.16442 38582 ft 500 kts 186°
2026-04-08 04:46 41.26868 -103.16571 37705 ft 501 kts 186°
2026-04-08 04:46 41.23378 -103.16697 36821 ft 503 kts 186°
2026-04-08 04:46 41.19877 -103.16825 35920 ft 505 kts 186°
2026-04-08 04:46 41.16354 -103.16955 35003 ft 508 kts 185°
2026-04-08 04:47 41.12815 -103.17085 34161 ft 509 kts 185°
2026-04-08 04:47 41.09335 -103.17216 33646 ft 503 kts 185°
2026-04-08 04:47 41.05902 -103.17610 33538 ft 486 kts 192°
2026-04-08 04:47 41.02633 -103.18514 33544 ft 473 kts 200°
2026-04-08 04:48 40.99608 -103.19966 33449 ft 454 kts 209°
2026-04-08 04:48 40.96857 -103.21934 32717 ft 448 kts 218°
2026-04-08 04:48 40.94416 -103.24482 31910 ft 445 kts 229°
2026-04-08 04:48 40.92403 -103.27464 31754 ft 427 kts 237°
2026-04-08 04:49 40.90783 -103.30714 31031 ft 424 kts 244°
2026-04-08 04:49 40.89306 -103.34118 30275 ft 428 kts 244°
2026-04-08 04:49 40.87844 -103.37531 29713 ft 426 kts 244°
2026-04-08 04:49 40.86383 -103.40914 29177 ft 422 kts 244°
2026-04-08 04:50 40.84927 -103.44261 28671 ft 418 kts 244°
2026-04-08 04:50 40.83484 -103.47568 28170 ft 413 kts 244°
2026-04-08 04:50 40.82055 -103.50833 27664 ft 409 kts 244°
2026-04-08 04:50 40.80637 -103.54064 27180 ft 405 kts 244°
2026-04-08 04:51 40.79232 -103.57263 26688 ft 401 kts 244°
2026-04-08 04:51 40.77839 -103.60430 26192 ft 398 kts 244°
2026-04-08 04:51 40.76454 -103.63575 25706 ft 394 kts 244°
2026-04-08 04:51 40.75081 -103.66689 25177 ft 392 kts 244°
2026-04-08 04:52 40.73716 -103.69782 24685 ft 389 kts 244°
2026-04-08 04:52 40.72361 -103.72851 24190 ft 386 kts 244°
2026-04-08 04:52 40.71012 -103.75902 23707 ft 384 kts 244°
2026-04-08 04:52 40.69670 -103.78932 23173 ft 382 kts 244°
2026-04-08 04:53 40.68335 -103.81944 22635 ft 379 kts 244°
2026-04-08 04:53 40.67011 -103.84929 22137 ft 375 kts 244°
2026-04-08 04:53 40.65698 -103.87884 21636 ft 372 kts 243°
2026-04-08 04:53 40.64397 -103.90811 21159 ft 369 kts 243°
2026-04-08 04:54 40.63105 -103.93715 20680 ft 366 kts 243°
2026-04-08 04:54 40.61823 -103.96595 20179 ft 364 kts 243°
2026-04-08 04:54 40.60547 -103.99458 19702 ft 361 kts 243°
2026-04-08 04:54 40.59280 -104.02298 19200 ft 359 kts 243°
2026-04-08 04:55 40.58020 -104.05120 18719 ft 356 kts 243°
2026-04-08 04:55 40.57190 -104.06978 18388 ft 355 kts 243°
2026-04-08 04:55 40.55942 -104.09768 17849 ft 353 kts 243°
2026-04-08 04:55 40.54704 -104.12534 17357 ft 349 kts 243°
2026-04-08 04:56 40.53477 -104.15272 16877 ft 347 kts 243°
2026-04-08 04:56 40.52258 -104.17990 16384 ft 344 kts 242°
2026-04-08 04:56 40.50652 -104.21567 15775 ft 342 kts 242°
2026-04-08 04:56 40.49447 -104.24250 15310 ft 340 kts 242°
2026-04-08 04:57 40.48636 -104.26052 14992 ft 339 kts 242°
2026-04-08 04:57 40.47438 -104.28716 14525 ft 338 kts 242°
2026-04-08 04:57 40.46243 -104.31369 14051 ft 337 kts 242°
2026-04-08 04:57 40.45054 -104.34007 13686 ft 332 kts 242°
2026-04-08 04:58 40.43901 -104.36556 13574 ft 318 kts 243°
2026-04-08 04:58 40.42798 -104.38993 13454 ft 304 kts 243°
2026-04-08 04:58 40.41742 -104.41326 13334 ft 291 kts 243°
2026-04-08 04:58 40.40732 -104.43556 13222 ft 278 kts 243°
2026-04-08 04:59 40.39765 -104.45692 13121 ft 266 kts 243°
2026-04-08 04:59 40.38839 -104.47736 12987 ft 255 kts 243°
2026-04-08 04:59 40.37953 -104.49692 12863 ft 244 kts 243°
2026-04-08 04:59 40.37090 -104.51601 12586 ft 243 kts 243°
2026-04-08 05:00 40.35380 -104.55397 12032 ft 240 kts 245°
2026-04-08 05:00 40.34768 -104.57380 11884 ft 230 kts 258°
2026-04-08 05:00 40.34362 -104.59449 11878 ft 237 kts 260°
2026-04-08 05:01 40.33979 -104.61562 11877 ft 239 kts 260°
2026-04-08 05:01 40.33582 -104.63673 11864 ft 239 kts 257°
2026-04-08 05:01 40.32839 -104.65638 11859 ft 246 kts 235°
2026-04-08 05:01 40.31472 -104.67017 11741 ft 253 kts 210°
2026-04-08 05:02 40.29848 -104.67872 11534 ft 257 kts 203°
2026-04-08 05:02 40.28078 -104.68292 11421 ft 262 kts 187°
2026-04-08 05:02 40.26249 -104.68345 11146 ft 263 kts 184°
2026-04-08 05:02 40.24412 -104.68338 10774 ft 264 kts 184°
2026-04-08 05:03 40.22573 -104.68340 10387 ft 265 kts 184°
2026-04-08 05:03 40.20732 -104.68344 10042 ft 264 kts 184°
2026-04-08 05:03 40.18898 -104.68361 9754 ft 261 kts 185°
2026-04-08 05:03 40.17109 -104.68373 9743 ft 257 kts 185°
2026-04-08 05:04 40.15322 -104.68392 9721 ft 256 kts 185°
2026-04-08 05:04 40.13579 -104.68401 9608 ft 245 kts 185°
2026-04-08 05:04 40.11929 -104.68413 9545 ft 230 kts 185°
2026-04-08 05:04 40.10361 -104.68440 9333 ft 222 kts 186°
2026-04-08 05:05 40.08822 -104.68463 9019 ft 221 kts 185°
2026-04-08 05:05 40.07288 -104.68478 8737 ft 220 kts 185°
2026-04-08 05:05 40.05757 -104.68496 8411 ft 219 kts 185°
2026-04-08 05:05 40.04236 -104.68513 8131 ft 217 kts 185°
2026-04-08 05:06 40.02740 -104.68530 7865 ft 213 kts 185°
2026-04-08 05:06 40.01265 -104.68547 7591 ft 210 kts 185°
2026-04-08 05:06 39.99826 -104.68563 7330 ft 203 kts 185°
2026-04-08 05:06 39.98457 -104.68578 7101 ft 190 kts 185°
2026-04-08 05:07 39.97174 -104.68593 6855 ft 179 kts 185°
2026-04-08 05:07 39.95972 -104.68607 6641 ft 167 kts 184°
2026-04-08 05:07 39.94838 -104.68620 6434 ft 159 kts 185°
2026-04-08 05:07 39.93782 -104.68633 6241 ft 150 kts 183°
2026-04-08 05:08 39.92753 -104.68645 6023 ft 147 kts 183°
2026-04-08 05:08 39.91741 -104.68666 5796 ft 144 kts 182°
2026-04-08 05:08 39.90751 -104.68658 5604 ft 140 kts 182°
2026-04-08 05:08 39.89783 -104.68682 5436 ft 138 kts 181°
2026-04-08 05:09 39.88842 -104.68690 5369 ft 124 kts 180°
2026-04-08 05:09 39.88222 -104.68695 5370 ft 66 kts 180°
2026-04-08 05:09 39.87799 -104.68698 5372 ft 56 kts 180°
2026-04-08 05:09 39.87482 -104.68695 5368 ft 38 kts 173°
2026-04-08 05:10 39.87245 -104.68581 5368 ft 31 kts 152°
2026-04-08 05:10 39.87075 -104.68499 5370 ft 25 kts 176°
2026-04-08 05:10 39.86899 -104.68492 5369 ft 25 kts 184°
2026-04-08 05:10 39.86726 -104.68500 5370 ft 25 kts 181°
2026-04-08 05:11 39.86554 -104.68502 5370 ft 25 kts 180°
2026-04-08 05:11 39.86383 -104.68504 5370 ft 25 kts 180°
2026-04-08 05:11 39.86212 -104.68506 5370 ft 24 kts 180°
2026-04-08 05:11 39.86043 -104.68508 5370 ft 24 kts 180°
2026-04-08 05:12 39.85875 -104.68510 5368 ft 24 kts 180°
2026-04-08 05:12 39.85710 -104.68510 5370 ft 19 kts 180°
2026-04-08 05:12 39.85621 -104.68494 5368 ft 12 kts 146°
2026-04-08 05:12 39.85599 -104.68395 5370 ft 12 kts 92°
2026-04-08 05:13 39.85597 -104.68275 5370 ft 14 kts 90°
2026-04-08 05:13 39.85596 -104.68143 5370 ft 15 kts 90°
2026-04-08 05:13 39.85595 -104.67999 5370 ft 17 kts 90°
2026-04-08 05:13 39.85575 -104.67850 5369 ft 17 kts 121°
2026-04-08 05:14 39.85524 -104.67709 5368 ft 18 kts 96°
2026-04-08 05:14 39.85522 -104.67580 5369 ft 6 kts 90°
2026-04-08 05:14 39.85516 -104.67516 5369 ft 7 kts 115°
2026-04-08 05:14 39.85478 -104.67497 5369 ft 3 kts 175°
2026-04-08 05:15 39.85457 -104.67497 5370 ft 1 kts 183°
2026-04-08 05:15 39.85451 -104.67498 5370 ft 0 kts 184°
2026-04-08 05:15 39.85450 -104.67498 5370 ft 2 kts 184°
2026-04-08 05:15 39.85443 -104.67498 5370 ft 0 kts 184°